Time,TemperatureF,DewpointF,PressureIn,WindDirection,WindDirectionDegrees,WindSpeedMPH,WindSpeedGustMPH,Humidity,HourlyPrecipIn,Conditions,Clouds,dailyrainin,SoftwareType,DateUTC
2013-07-24 00:00:00,66.9,8.6,30.09,SSW,196,5.4,7.6,10,0.00,,---,0.00,VWS V14.01,2013-07-24 06:00:00,
2013-07-24 00:01:00,66.9,8.6,30.09,SSW,200,5.4,7.2,10,0.00,,---,0.00,VWS V14.01,2013-07-24 06:01:00,
2013-07-24 00:02:00,66.9,8.6,30.09,SSW,199,4.9,7.2,10,0.00,,---,0.00,VWS V14.01,2013-07-24 06:02:00,
2013-07-24 00:04:00,66.7,8.5,30.09,South,187,4.9,7.2,10,0.00,,---,0.00,VWS V14.01,2013-07-24 06:04:00,
2013-07-24 00:05:00,66.7,8.5,30.09,South,182,2.7,7.2,10,0.00,,---,0.00,VWS V14.01,2013-07-24 06:05:00,
2013-07-24 00:06:00,66.6,8.3,30.09,South,179,3.6,7.2,10,0.00,,---,0.00,VWS V14.01,2013-07-24 06:06:00,
2013-07-24 00:08:00,66.4,8.2,30.09,SSE,168,2.7,7.2,10,0.00,,---,0.00,VWS V14.01,2013-07-24 06:08:00,
2013-07-24 00:09:00,66.2,8.1,30.09,SSE,156,2.7,7.2,10,0.00,,---,0.00,VWS V14.01,2013-07-24 06:09:00,
2013-07-24 00:10:00,66.2,8.1,30.09,SSE,150,3.1,7.2,10,0.00,,---,0.00,VWS V14.01,2013-07-24 06:10:00,
2013-07-24 00:11:00,65.8,7.8,30.09,SSE,153,3.1,7.2,10,0.00,,---,0.00,VWS V14.01,2013-07-24 06:11:00,
2013-07-24 00:12:00,65.8,7.8,30.09,SSW,200,4.0,7.2,10,0.00,,---,0.00,VWS V14.01,2013-07-24 06:12:00,
2013-07-24 00:13:00,65.1,7.2,30.09,South,183,3.1,7.2,10,0.00,,---,0.00,VWS V14.01,2013-07-24 06:13:00,
2013-07-24 00:14:00,64.9,7.1,30.09,SSW,197,3.6,7.2,10,0.00,,---,0.00,VWS V14.01,2013-07-24 06:14:00,
2013-07-24 00:15:00,64.8,6.9,30.09,SSW,194,0.0,7.2,10,0.00,,---,0.00,VWS V14.01,2013-07-24 06:15:00,
2013-07-24 00:16:00,64.4,6.7,30.09,SSW,212,2.2,4.0,10,0.00,,---,0.00,VWS V14.01,2013-07-24 06:16:00,
2013-07-24 00:17:00,64.4,6.7,30.09,SSW,212,0.0,4.0,10,0.00,,---,0.00,VWS V14.01,2013-07-24 06:17:00,
2013-07-24 00:18:00,64.2,8.6,30.09,SSW,212,0.0,4.0,11,0.00,,---,0.00,VWS V14.01,2013-07-24 06:18:00,
2013-07-24 00:19:00,64.0,8.5,30.09,SSW,212,0.0,4.0,11,0.00,,---,0.00,VWS V14.01,2013-07-24 06:19:00,
2013-07-24 00:20:00,63.9,8.4,30.09,SSW,202,4.0,4.0,11,0.00,,---,0.00,VWS V14.01,2013-07-24 06:20:00,
2013-07-24 00:21:00,63.9,8.4,30.09,SSW,192,3.6,5.8,11,0.00,,---,0.00,VWS V14.01,2013-07-24 06:21:00,
2013-07-24 00:22:00,63.9,8.4,30.09,SSW,210,3.1,5.8,11,0.00,,---,0.00,VWS V14.01,2013-07-24 06:22:00,
2013-07-24 00:23:00,64.0,8.5,30.09,SSW,207,3.6,5.8,11,0.00,,---,0.00,VWS V14.01,2013-07-24 06:23:00,
2013-07-24 00:24:00,64.0,8.5,30.09,SSW,207,3.6,5.8,11,0.00,,---,0.00,VWS V14.01,2013-07-24 06:24:00,
2013-07-24 00:26:00,64.2,8.6,30.09,SSW,207,2.2,5.8,11,0.00,,---,0.00,VWS V14.01,2013-07-24 06:26:00,
2013-07-24 00:27:00,64.4,6.7,30.09,SSE,164,3.1,5.8,10,0.00,,---,0.00,VWS V14.01,2013-07-24 06:27:00,
2013-07-24 00:28:00,64.4,6.7,30.09,SSE,164,0.0,5.8,10,0.00,,---,0.00,VWS V14.01,2013-07-24 06:28:00,
2013-07-24 00:29:00,64.4,6.7,30.09,South,191,3.6,5.8,10,0.00,,---,0.00,VWS V14.01,2013-07-24 06:29:00,
2013-07-24 00:31:00,64.4,6.7,30.09,South,189,0.0,2.7,10,0.00,,---,0.00,VWS V14.01,2013-07-24 06:31:00,
2013-07-24 00:32:00,64.6,6.8,30.09,South,189,0.0,2.7,10,0.00,,---,0.00,VWS V14.01,2013-07-24 06:32:00,
2013-07-24 00:34:00,64.6,6.8,30.09,ESE,118,3.6,3.6,10,0.00,,---,0.00,VWS V14.01,2013-07-24 06:34:00,
2013-07-24 00:35:00,64.4,6.7,30.09,SE,142,2.7,3.6,10,0.00,,---,0.00,VWS V14.01,2013-07-24 06:35:00,
2013-07-24 00:36:00,64.2,8.6,30.09,SSE,151,0.0,3.6,11,0.00,,---,0.00,VWS V14.01,2013-07-24 06:36:00,
2013-07-24 00:37:00,64.2,8.6,30.09,South,189,2.7,3.6,11,0.00,,---,0.00,VWS V14.01,2013-07-24 06:37:00,
2013-07-24 00:38:00,63.9,8.4,30.09,SSW,192,4.0,4.0,11,0.00,,---,0.00,VWS V14.01,2013-07-24 06:38:00,
2013-07-24 00:39:00,63.9,8.4,30.09,South,184,2.7,4.0,11,0.00,,---,0.00,VWS V14.01,2013-07-24 06:39:00,
2013-07-24 00:40:00,63.9,8.4,30.09,South,191,2.7,4.9,11,0.00,,---,0.00,VWS V14.01,2013-07-24 06:40:00,
2013-07-24 00:41:00,63.9,8.4,30.09,South,187,3.6,4.9,11,0.00,,---,0.00,VWS V14.01,2013-07-24 06:41:00,
2013-07-24 00:42:00,63.7,8.2,30.09,SSW,193,3.1,4.9,11,0.00,,---,0.00,VWS V14.01,2013-07-24 06:42:00,
2013-07-24 00:43:00,63.7,8.2,30.09,SSW,195,3.1,4.9,11,0.00,,---,0.00,VWS V14.01,2013-07-24 06:43:00,
2013-07-24 00:44:00,63.7,8.2,30.09,South,187,3.6,4.9,11,0.00,,---,0.00,VWS V14.01,2013-07-24 06:44:00,
2013-07-24 00:45:00,63.7,8.2,30.09,SSW,193,4.0,4.0,11,0.00,,---,0.00,VWS V14.01,2013-07-24 06:45:00,
2013-07-24 00:47:00,63.7,8.2,30.09,SSW,195,2.2,4.0,11,0.00,,---,0.00,VWS V14.01,2013-07-24 06:47:00,
2013-07-24 00:48:00,63.7,8.2,30.09,SSW,194,2.2,4.0,11,0.00,,---,0.00,VWS V14.01,2013-07-24 06:48:00,
2013-07-24 00:49:00,63.5,8.1,30.09,SSW,197,2.2,4.0,11,0.00,,---,0.00,VWS V14.01,2013-07-24 06:49:00,
2013-07-24 00:51:00,63.5,8.1,30.09,South,190,3.1,4.0,11,0.00,,---,0.00,VWS V14.01,2013-07-24 06:51:00,
2013-07-24 00:52:00,63.3,7.9,30.09,SSW,194,3.6,4.0,11,0.00,,---,0.00,VWS V14.01,2013-07-24 06:52:00,
2013-07-24 00:53:00,63.3,7.9,30.09,South,188,3.6,4.0,11,0.00,,---,0.00,VWS V14.01,2013-07-24 06:53:00,
2013-07-24 00:54:00,63.3,7.9,30.09,SSW,196,3.6,5.4,11,0.00,,---,0.00,VWS V14.01,2013-07-24 06:54:00,
2013-07-24 00:57:00,63.3,7.9,30.09,SSW,192,2.7,5.4,11,0.00,,---,0.00,VWS V14.01,2013-07-24 06:57:00,
2013-07-24 00:58:00,63.3,7.9,30.09,SSW,192,2.2,5.4,11,0.00,,---,0.00,VWS V14.01,2013-07-24 06:58:00,
2013-07-24 00:59:00,63.1,7.8,30.09,SSW,198,2.2,5.4,11,0.00,,---,0.00,VWS V14.01,2013-07-24 06:59:00,
2013-07-24 01:02:00,63.3,7.9,30.09,SSW,196,2.7,4.0,11,0.00,,---,0.00,VWS V14.01,2013-07-24 07:02:00,
2013-07-24 01:03:00,63.3,7.9,30.09,SSW,196,3.1,4.0,11,0.00,,---,0.00,VWS V14.01,2013-07-24 07:03:00,
2013-07-24 01:04:00,63.5,8.1,30.09,SSW,196,2.7,4.0,11,0.00,,---,0.00,VWS V14.01,2013-07-24 07:04:00,
2013-07-24 01:05:00,63.5,8.1,30.09,SSW,196,3.1,4.0,11,0.00,,---,0.00,VWS V14.01,2013-07-24 07:05:00,
2013-07-24 01:07:00,63.7,8.2,30.09,SSW,197,3.6,4.0,11,0.00,,---,0.00,VWS V14.01,2013-07-24 07:07:00,
2013-07-24 01:08:00,63.9,8.4,30.09,South,186,2.7,4.0,11,0.00,,---,0.00,VWS V14.01,2013-07-24 07:08:00,
2013-07-24 01:09:00,63.9,8.4,30.09,South,189,4.0,4.9,11,0.00,,---,0.00,VWS V14.01,2013-07-24 07:09:00,
2013-07-24 01:12:00,63.9,8.4,30.09,SSW,202,3.6,5.8,11,0.00,,---,0.00,VWS V14.01,2013-07-24 07:12:00,
2013-07-24 01:13:00,63.9,8.4,30.09,SSW,202,3.6,5.8,11,0.00,,---,0.00,VWS V14.01,2013-07-24 07:13:00,
2013-07-24 01:14:00,63.7,8.2,30.09,South,179,2.7,5.8,11,0.00,,---,0.00,VWS V14.01,2013-07-24 07:14:00,
2013-07-24 01:17:00,63.3,7.9,30.09,South,191,3.6,5.4,11,0.00,,---,0.00,VWS V14.01,2013-07-24 07:17:00,
2013-07-24 01:18:00,63.3,7.9,30.09,South,190,4.0,5.4,11,0.00,,---,0.00,VWS V14.01,2013-07-24 07:18:00,
2013-07-24 01:20:00,63.0,7.7,30.09,South,183,3.6,5.4,11,0.00,,---,0.00,VWS V14.01,2013-07-24 07:20:00,
2013-07-24 01:23:00,62.6,7.4,30.09,SSW,200,6.3,6.3,11,0.00,,---,0.00,VWS V14.01,2013-07-24 07:23:00,
2013-07-24 01:24:00,62.6,7.4,30.09,SSW,195,5.8,6.3,11,0.00,,---,0.00,VWS V14.01,2013-07-24 07:24:00,
2013-07-24 01:25:00,62.8,7.5,30.09,SSW,200,5.8,6.3,11,0.00,,---,0.00,VWS V14.01,2013-07-24 07:25:00,
2013-07-24 01:28:00,63.0,7.7,30.06,SSW,196,3.6,6.3,11,0.00,,---,0.00,VWS V14.01,2013-07-24 07:28:00,
2013-07-24 01:29:00,63.0,7.7,30.06,SSW,196,3.1,6.3,11,0.00,,---,0.00,VWS V14.01,2013-07-24 07:29:00,
2013-07-24 01:30:00,62.8,7.5,30.06,SSW,196,2.7,2.7,11,0.00,,---,0.00,VWS V14.01,2013-07-24 07:30:00,
2013-07-24 01:33:00,62.6,7.4,30.06,SSW,196,0.0,3.1,11,0.00,,---,0.00,VWS V14.01,2013-07-24 07:33:00,
2013-07-24 01:34:00,62.6,7.4,30.06,SSW,196,0.0,3.1,11,0.00,,---,0.00,VWS V14.01,2013-07-24 07:34:00,
2013-07-24 01:35:00,62.6,7.4,30.06,SSW,196,2.2,3.1,11,0.00,,---,0.00,VWS V14.01,2013-07-24 07:35:00,
2013-07-24 01:38:00,62.2,7.1,30.06,SSW,195,4.0,4.0,11,0.00,,---,0.00,VWS V14.01,2013-07-24 07:38:00,
2013-07-24 01:39:00,62.2,7.1,30.06,SSW,196,4.0,4.0,11,0.00,,---,0.00,VWS V14.01,2013-07-24 07:39:00,
2013-07-24 01:40:00,62.2,7.1,30.06,SSW,195,3.6,4.0,11,0.00,,---,0.00,VWS V14.01,2013-07-24 07:40:00,
2013-07-24 01:41:00,62.2,7.1,30.06,SSW,193,5.4,5.4,11,0.00,,---,0.00,VWS V14.01,2013-07-24 07:41:00,
2013-07-24 01:43:00,62.2,7.1,30.06,SSW,200,3.1,5.4,11,0.00,,---,0.00,VWS V14.01,2013-07-24 07:43:00,
2013-07-24 01:44:00,62.2,7.1,30.06,SSW,198,3.6,5.4,11,0.00,,---,0.00,VWS V14.01,2013-07-24 07:44:00,
2013-07-24 01:45:00,62.2,7.1,30.06,SSW,197,3.1,5.4,11,0.00,,---,0.00,VWS V14.01,2013-07-24 07:45:00,
2013-07-24 01:46:00,62.2,7.1,30.06,SSW,210,3.1,4.0,11,0.00,,---,0.00,VWS V14.01,2013-07-24 07:46:00,
2013-07-24 01:48:00,62.2,7.1,30.06,South,174,4.9,5.4,11,0.00,,---,0.00,VWS V14.01,2013-07-24 07:48:00,
2013-07-24 01:49:00,62.4,7.2,30.06,South,177,3.1,6.3,11,0.00,,---,0.00,VWS V14.01,2013-07-24 07:49:00,
2013-07-24 01:50:00,62.4,7.2,30.06,SSW,193,3.1,6.3,11,0.00,,---,0.00,VWS V14.01,2013-07-24 07:50:00,
2013-07-24 01:52:00,62.4,7.2,30.06,South,183,2.7,6.3,11,0.00,,---,0.00,VWS V14.01,2013-07-24 07:52:00,
2013-07-24 01:54:00,62.2,7.1,30.06,SSW,199,5.8,6.3,11,0.00,,---,0.00,VWS V14.01,2013-07-24 07:54:00,
2013-07-24 01:55:00,62.1,7.0,30.06,South,189,5.4,6.3,11,0.00,,---,0.00,VWS V14.01,2013-07-24 07:55:00,
2013-07-24 01:57:00,62.1,7.0,30.06,South,189,4.9,6.3,11,0.00,,---,0.00,VWS V14.01,2013-07-24 07:57:00,
2013-07-24 01:59:00,62.1,7.0,30.06,South,189,5.8,6.3,11,0.00,,---,0.00,VWS V14.01,2013-07-24 07:59:00,
2013-07-24 02:00:00,62.1,7.0,30.06,SSW,195,5.4,6.3,11,0.00,,---,0.00,VWS V14.01,2013-07-24 08:00:00,
2013-07-24 02:02:00,62.2,7.1,30.06,SSW,194,5.4,6.3,11,0.00,,---,0.00,VWS V14.01,2013-07-24 08:02:00,
2013-07-24 02:04:00,62.4,7.2,30.06,SSW,192,3.6,6.3,11,0.00,,---,0.00,VWS V14.01,2013-07-24 08:04:00,
2013-07-24 02:05:00,62.4,7.2,30.06,South,190,3.6,6.3,11,0.00,,---,0.00,VWS V14.01,2013-07-24 08:05:00,
2013-07-24 02:06:00,62.4,7.2,30.06,South,188,2.7,6.3,11,0.00,,---,0.00,VWS V14.01,2013-07-24 08:06:00,
2013-07-24 02:07:00,62.6,7.4,30.06,SSW,202,3.1,6.3,11,0.00,,---,0.00,VWS V14.01,2013-07-24 08:07:00,
2013-07-24 02:09:00,62.6,7.4,30.06,SSW,193,0.0,6.3,11,0.00,,---,0.00,VWS V14.01,2013-07-24 08:09:00,
2013-07-24 02:10:00,62.6,7.4,30.06,SSW,193,2.2,6.3,11,0.00,,---,0.00,VWS V14.01,2013-07-24 08:10:00,
2013-07-24 02:11:00,62.6,7.4,30.06,SSW,193,0.0,6.3,11,0.00,,---,0.00,VWS V14.01,2013-07-24 08:11:00,
2013-07-24 02:12:00,62.6,7.4,30.06,South,190,2.2,6.3,11,0.00,,---,0.00,VWS V14.01,2013-07-24 08:12:00,
2013-07-24 02:15:00,62.2,7.1,30.06,SSE,158,2.2,6.3,11,0.00,,---,0.00,VWS V14.01,2013-07-24 08:15:00,
2013-07-24 02:16:00,62.1,7.0,30.06,South,174,2.7,2.7,11,0.00,,---,0.00,VWS V14.01,2013-07-24 08:16:00,
2013-07-24 02:17:00,61.9,6.8,30.06,South,175,2.2,2.7,11,0.00,,---,0.00,VWS V14.01,2013-07-24 08:17:00,
2013-07-24 02:20:00,61.3,6.4,30.06,South,176,2.7,4.0,11,0.00,,---,0.00,VWS V14.01,2013-07-24 08:20:00,
2013-07-24 02:21:00,61.0,6.1,30.06,South,189,0.0,4.0,11,0.00,,---,0.00,VWS V14.01,2013-07-24 08:21:00,
2013-07-24 02:22:00,60.8,6.0,30.06,South,184,2.7,4.0,11,0.00,,---,0.00,VWS V14.01,2013-07-24 08:22:00,
2013-07-24 02:25:00,60.4,7.6,30.06,SSW,199,5.4,5.4,12,0.00,,---,0.00,VWS V14.01,2013-07-24 08:25:00,
2013-07-24 02:26:00,60.3,7.5,30.06,SSW,199,3.6,5.4,12,0.00,,---,0.00,VWS V14.01,2013-07-24 08:26:00,
2013-07-24 02:27:00,60.3,7.5,30.06,South,190,3.1,5.4,12,0.00,,---,0.00,VWS V14.01,2013-07-24 08:27:00,
2013-07-24 02:30:00,60.1,7.3,30.06,SSW,192,4.0,4.0,12,0.00,,---,0.00,VWS V14.01,2013-07-24 08:30:00,
2013-07-24 02:32:00,60.1,7.3,30.06,South,191,3.1,4.0,12,0.00,,---,0.00,VWS V14.01,2013-07-24 08:32:00,
2013-07-24 02:33:00,60.1,7.3,30.06,SSW,195,3.6,4.0,12,0.00,,---,0.00,VWS V14.01,2013-07-24 08:33:00,
2013-07-24 02:35:00,60.1,7.3,30.06,SSW,198,3.6,4.9,12,0.00,,---,0.00,VWS V14.01,2013-07-24 08:35:00,
2013-07-24 02:37:00,60.1,7.3,30.06,SSW,192,5.4,5.4,12,0.00,,---,0.00,VWS V14.01,2013-07-24 08:37:00,
2013-07-24 02:38:00,60.1,7.3,30.06,SSW,199,4.0,5.4,12,0.00,,---,0.00,VWS V14.01,2013-07-24 08:38:00,
2013-07-24 02:41:00,60.1,7.3,30.06,SSW,203,4.0,5.4,12,0.00,,---,0.00,VWS V14.01,2013-07-24 08:41:00,
2013-07-24 02:42:00,60.1,7.3,30.06,South,189,5.4,5.4,12,0.00,,---,0.00,VWS V14.01,2013-07-24 08:42:00,
2013-07-24 02:43:00,60.3,7.5,30.06,SSW,193,4.0,5.4,12,0.00,,---,0.00,VWS V14.01,2013-07-24 08:43:00,
2013-07-24 02:47:00,60.4,7.6,30.06,SSW,195,0.0,4.9,12,0.00,,---,0.00,VWS V14.01,2013-07-24 08:47:00,
2013-07-24 02:48:00,60.3,7.5,30.06,SSW,195,3.6,4.9,12,0.00,,---,0.00,VWS V14.01,2013-07-24 08:48:00,
2013-07-24 02:52:00,60.1,7.3,30.06,SSW,205,4.9,5.8,12,0.00,,---,0.00,VWS V14.01,2013-07-24 08:52:00,
2013-07-24 02:53:00,60.1,7.3,30.06,SSW,195,4.0,5.8,12,0.00,,---,0.00,VWS V14.01,2013-07-24 08:53:00,
2013-07-24 02:54:00,60.1,7.3,30.06,SSW,198,3.6,5.8,12,0.00,,---,0.00,VWS V14.01,2013-07-24 08:54:00,
2013-07-24 02:57:00,60.3,7.5,30.06,SSW,197,5.8,5.8,12,0.00,,---,0.00,VWS V14.01,2013-07-24 08:57:00,
2013-07-24 02:58:00,60.4,7.6,30.06,South,186,4.0,5.8,12,0.00,,---,0.00,VWS V14.01,2013-07-24 08:58:00,
2013-07-24 02:59:00,60.6,7.8,30.06,SSW,193,2.7,5.8,12,0.00,,---,0.00,VWS V14.01,2013-07-24 08:59:00,
2013-07-24 03:03:00,61.2,6.3,30.06,SSW,201,4.9,4.9,11,0.00,,---,0.00,VWS V14.01,2013-07-24 09:03:00,
2013-07-24 03:05:00,61.3,6.4,30.06,SSW,195,4.9,5.4,11,0.00,,---,0.00,VWS V14.01,2013-07-24 09:05:00,
2013-07-24 03:08:00,61.7,6.7,30.06,South,171,2.7,5.4,11,0.00,,---,0.00,VWS V14.01,2013-07-24 09:08:00,
2013-07-24 03:09:00,61.7,6.7,30.06,South,171,2.2,5.4,11,0.00,,---,0.00,VWS V14.01,2013-07-24 09:09:00,
2013-07-24 03:10:00,61.7,6.7,30.06,SSE,163,2.2,5.4,11,0.00,,---,0.00,VWS V14.01,2013-07-24 09:10:00,
2013-07-24 03:13:00,61.2,6.3,30.06,SSW,197,3.1,5.4,11,0.00,,---,0.00,VWS V14.01,2013-07-24 09:13:00,
2013-07-24 03:14:00,61.0,6.1,30.06,SSW,197,2.2,5.4,11,0.00,,---,0.00,VWS V14.01,2013-07-24 09:14:00,
2013-07-24 03:15:00,60.8,6.0,30.06,SSW,197,2.7,2.7,11,0.00,,---,0.00,VWS V14.01,2013-07-24 09:15:00,
2013-07-24 03:18:00,60.4,7.6,30.06,South,169,2.2,3.1,12,0.00,,---,0.00,VWS V14.01,2013-07-24 09:18:00,
2013-07-24 03:19:00,60.3,7.5,30.06,SSE,167,2.2,3.1,12,0.00,,---,0.00,VWS V14.01,2013-07-24 09:19:00,
2013-07-24 03:21:00,60.1,7.3,30.06,SSW,193,4.0,4.0,12,0.00,,---,0.00,VWS V14.01,2013-07-24 09:21:00,
2013-07-24 03:23:00,59.7,7.0,30.06,SSW,195,3.1,4.0,12,0.00,,---,0.00,VWS V14.01,2013-07-24 09:23:00,
2013-07-24 03:24:00,59.7,7.0,30.06,SSW,202,3.6,4.0,12,0.00,,---,0.00,VWS V14.01,2013-07-24 09:24:00,
2013-07-24 03:26:00,59.5,6.9,30.06,SSW,197,5.4,6.3,12,0.00,,---,0.00,VWS V14.01,2013-07-24 09:26:00,
2013-07-24 03:28:00,59.5,6.9,30.06,SSW,197,3.1,6.3,12,0.00,,---,0.00,VWS V14.01,2013-07-24 09:28:00,
2013-07-24 03:29:00,59.5,6.9,30.06,SSW,202,5.4,6.3,12,0.00,,---,0.00,VWS V14.01,2013-07-24 09:29:00,
2013-07-24 03:30:00,59.7,7.0,30.06,SSW,199,4.0,6.3,12,0.00,,---,0.00,VWS V14.01,2013-07-24 09:30:00,
2013-07-24 03:31:00,59.5,6.9,30.06,South,188,4.0,4.9,12,0.00,,---,0.00,VWS V14.01,2013-07-24 09:31:00,
2013-07-24 03:34:00,59.4,6.8,30.06,SSW,195,3.6,5.8,12,0.00,,---,0.00,VWS V14.01,2013-07-24 09:34:00,
2013-07-24 03:35:00,59.4,6.8,30.06,SSW,193,5.4,5.8,12,0.00,,---,0.00,VWS V14.01,2013-07-24 09:35:00,
2013-07-24 03:37:00,59.2,6.6,30.06,SSW,201,3.6,5.8,12,0.00,,---,0.00,VWS V14.01,2013-07-24 09:37:00,
2013-07-24 03:39:00,59.2,6.6,30.06,SSW,204,5.4,5.8,12,0.00,,---,0.00,VWS V14.01,2013-07-24 09:39:00,
2013-07-24 03:40:00,59.2,6.6,30.06,SSW,205,4.0,5.8,12,0.00,,---,0.00,VWS V14.01,2013-07-24 09:40:00,
2013-07-24 03:42:00,59.2,6.6,30.06,SSW,200,2.7,5.8,12,0.00,,---,0.00,VWS V14.01,2013-07-24 09:42:00,
2013-07-24 03:44:00,59.0,6.5,30.06,SSW,199,3.1,5.8,12,0.00,,---,0.00,VWS V14.01,2013-07-24 09:44:00,
2013-07-24 03:45:00,59.0,6.5,30.06,SSW,192,2.7,5.8,12,0.00,,---,0.00,VWS V14.01,2013-07-24 09:45:00,
2013-07-24 03:47:00,59.2,6.6,30.06,SSW,196,4.0,5.4,12,0.00,,---,0.00,VWS V14.01,2013-07-24 09:47:00,
2013-07-24 03:49:00,59.4,6.8,30.06,SSW,202,4.9,5.4,12,0.00,,---,0.00,VWS V14.01,2013-07-24 09:49:00,
2013-07-24 03:50:00,59.4,6.8,30.06,SSW,201,3.6,5.4,12,0.00,,---,0.00,VWS V14.01,2013-07-24 09:50:00,
2013-07-24 03:52:00,59.5,6.9,30.06,South,183,3.1,5.8,12,0.00,,---,0.00,VWS V14.01,2013-07-24 09:52:00,
2013-07-24 03:54:00,59.7,7.0,30.06,SSW,193,3.1,5.8,12,0.00,,---,0.00,VWS V14.01,2013-07-24 09:54:00,
2013-07-24 03:55:00,59.7,7.0,30.06,SSW,193,2.2,5.8,12,0.00,,---,0.00,VWS V14.01,2013-07-24 09:55:00,
2013-07-24 03:56:00,59.7,7.0,30.06,South,189,3.1,5.8,12,0.00,,---,0.00,VWS V14.01,2013-07-24 09:56:00,
2013-07-24 03:58:00,59.7,7.0,30.06,SSW,195,4.0,5.8,12,0.00,,---,0.00,VWS V14.01,2013-07-24 09:58:00,
2013-07-24 04:00:00,59.5,6.9,30.06,South,187,3.1,5.8,12,0.00,,---,0.00,VWS V14.01,2013-07-24 10:00:00,
2013-07-24 04:02:00,59.5,6.9,30.06,SSW,194,4.9,4.9,12,0.00,,---,0.00,VWS V14.01,2013-07-24 10:02:00,
2013-07-24 04:03:00,59.5,6.9,30.06,SSW,202,4.0,5.4,12,0.00,,---,0.00,VWS V14.01,2013-07-24 10:03:00,
2013-07-24 04:05:00,59.4,6.8,30.06,SSW,204,3.1,5.4,12,0.00,,---,0.00,VWS V14.01,2013-07-24 10:05:00,
2013-07-24 04:07:00,59.4,6.8,30.06,SSW,199,4.0,5.4,12,0.00,,---,0.00,VWS V14.01,2013-07-24 10:07:00,
2013-07-24 04:08:00,59.4,6.8,30.06,SSW,198,3.6,5.4,12,0.00,,---,0.00,VWS V14.01,2013-07-24 10:08:00,
2013-07-24 04:10:00,59.2,6.6,30.06,SSW,209,3.6,5.4,12,0.00,,---,0.00,VWS V14.01,2013-07-24 10:10:00,
2013-07-24 04:13:00,59.2,6.6,30.03,SSW,204,2.2,5.4,12,0.00,,---,0.00,VWS V14.01,2013-07-24 10:13:00,
2013-07-24 04:15:00,59.4,6.8,30.03,SSW,195,3.6,3.6,12,0.00,,---,0.00,VWS V14.01,2013-07-24 10:15:00,
2013-07-24 04:16:00,59.4,6.8,30.03,South,179,3.1,3.6,12,0.00,,---,0.00,VWS V14.01,2013-07-24 10:16:00,
2013-07-24 04:18:00,59.5,6.9,30.03,SSE,167,2.7,3.6,12,0.00,,---,0.00,VWS V14.01,2013-07-24 10:18:00,
2013-07-24 04:20:00,59.4,6.8,30.03,SSW,196,4.9,4.9,12,0.00,,---,0.00,VWS V14.01,2013-07-24 10:20:00,
2013-07-24 04:21:00,59.4,6.8,30.03,South,189,5.8,5.8,12,0.00,,---,0.00,VWS V14.01,2013-07-24 10:21:00,
2013-07-24 04:23:00,59.2,6.6,30.03,SSW,196,5.4,5.8,12,0.00,,---,0.00,VWS V14.01,2013-07-24 10:23:00,
2013-07-24 04:25:00,59.2,6.6,30.03,SSW,193,4.9,5.8,12,0.00,,---,0.00,VWS V14.01,2013-07-24 10:25:00,
2013-07-24 04:26:00,59.2,6.6,30.03,SSW,193,3.6,5.8,12,0.00,,---,0.00,VWS V14.01,2013-07-24 10:26:00,
2013-07-24 04:28:00,59.2,6.6,30.03,South,180,2.7,5.8,12,0.00,,---,0.00,VWS V14.01,2013-07-24 10:28:00,
2013-07-24 04:29:00,59.2,10.0,30.03,South,179,2.2,5.8,14,0.00,,---,0.00,VWS V14.01,2013-07-24 10:29:00,
2013-07-24 04:30:00,59.2,10.0,30.03,South,179,0.0,2.7,14,0.00,,---,0.00,VWS V14.01,2013-07-24 10:30:00,
2013-07-24 04:32:00,59.0,9.9,30.03,South,179,0.0,2.7,14,0.00,,---,0.00,VWS V14.01,2013-07-24 10:32:00,
2013-07-24 04:33:00,58.8,9.8,30.03,South,178,2.2,2.7,14,0.00,,---,0.00,VWS V14.01,2013-07-24 10:33:00,
2013-07-24 04:34:00,58.8,9.8,30.03,South,172,2.2,2.7,14,0.00,,---,0.00,VWS V14.01,2013-07-24 10:34:00,
2013-07-24 04:35:00,58.5,9.5,30.03,South,172,2.2,2.7,14,0.00,,---,0.00,VWS V14.01,2013-07-24 10:35:00,
2013-07-24 04:36:00,58.3,9.3,30.03,South,175,0.0,2.7,14,0.00,,---,0.00,VWS V14.01,2013-07-24 10:36:00,
2013-07-24 04:37:00,58.3,9.3,30.03,South,175,2.7,2.7,14,0.00,,---,0.00,VWS V14.01,2013-07-24 10:37:00,
2013-07-24 04:38:00,57.9,9.0,30.03,South,181,2.7,3.6,14,0.00,,---,0.00,VWS V14.01,2013-07-24 10:38:00,
2013-07-24 04:39:00,57.9,9.0,30.03,South,176,0.0,3.6,14,0.00,,---,0.00,VWS V14.01,2013-07-24 10:39:00,
2013-07-24 04:41:00,57.6,8.7,30.03,South,179,3.1,3.6,14,0.00,,---,0.00,VWS V14.01,2013-07-24 10:41:00,
2013-07-24 04:42:00,57.4,8.6,30.03,SSW,194,3.1,3.6,14,0.00,,---,0.00,VWS V14.01,2013-07-24 10:42:00,
2013-07-24 04:43:00,57.2,8.4,30.03,SSW,198,5.4,5.4,14,0.00,,---,0.00,VWS V14.01,2013-07-24 10:43:00,
2013-07-24 04:45:00,57.2,8.4,30.03,SSW,195,4.0,5.4,14,0.00,,---,0.00,VWS V14.01,2013-07-24 10:45:00,
2013-07-24 04:46:00,57.2,8.4,30.03,SSW,203,3.6,4.0,14,0.00,,---,0.00,VWS V14.01,2013-07-24 10:46:00,
2013-07-24 04:47:00,57.2,8.4,30.03,SSW,208,4.0,4.9,14,0.00,,---,0.00,VWS V14.01,2013-07-24 10:47:00,
2013-07-24 04:49:00,57.0,9.8,30.03,SSW,197,4.0,4.9,15,0.00,,---,0.00,VWS V14.01,2013-07-24 10:49:00,
2013-07-24 04:50:00,57.0,9.8,30.03,SSW,195,2.7,4.9,15,0.00,,---,0.00,VWS V14.01,2013-07-24 10:50:00,
2013-07-24 04:51:00,57.2,8.4,30.03,SSW,192,3.6,4.9,14,0.00,,---,0.00,VWS V14.01,2013-07-24 10:51:00,
2013-07-24 04:52:00,57.2,8.4,30.03,SSW,198,3.1,4.9,14,0.00,,---,0.00,VWS V14.01,2013-07-24 10:52:00,
2013-07-24 04:54:00,57.2,8.4,30.03,South,188,2.2,4.9,14,0.00,,---,0.00,VWS V14.01,2013-07-24 10:54:00,
2013-07-24 04:55:00,57.4,8.6,30.03,SSW,197,3.1,4.9,14,0.00,,---,0.00,VWS V14.01,2013-07-24 10:55:00,
2013-07-24 04:56:00,57.4,8.6,30.03,SSW,196,2.2,4.9,14,0.00,,---,0.00,VWS V14.01,2013-07-24 10:56:00,
2013-07-24 04:57:00,57.6,8.7,30.03,SSW,203,2.7,4.9,14,0.00,,---,0.00,VWS V14.01,2013-07-24 10:57:00,
2013-07-24 04:59:00,57.6,8.7,30.03,SSW,203,3.6,4.9,14,0.00,,---,0.00,VWS V14.01,2013-07-24 10:59:00,
2013-07-24 05:00:00,57.7,8.9,30.03,SSW,203,3.1,3.1,14,0.00,,---,0.00,VWS V14.01,2013-07-24 11:00:00,
2013-07-24 05:01:00,57.7,8.9,30.03,SSW,203,2.7,3.1,14,0.00,,---,0.00,VWS V14.01,2013-07-24 11:01:00,
2013-07-24 05:02:00,57.9,9.0,30.03,SSW,193,5.4,5.4,14,0.00,,---,0.00,VWS V14.01,2013-07-24 11:02:00,
2013-07-24 05:05:00,58.1,9.2,30.03,South,190,4.0,5.4,14,0.00,,---,0.00,VWS V14.01,2013-07-24 11:05:00,
2013-07-24 05:07:00,58.1,9.2,30.03,South,186,2.7,5.4,14,0.00,,---,0.00,VWS V14.01,2013-07-24 11:07:00,
2013-07-24 05:08:00,58.1,9.2,30.03,South,187,3.6,5.8,14,0.00,,---,0.00,VWS V14.01,2013-07-24 11:08:00,
2013-07-24 05:10:00,57.9,9.0,30.03,SSW,192,3.1,5.8,14,0.00,,---,0.00,VWS V14.01,2013-07-24 11:10:00,
2013-07-24 05:12:00,57.6,8.7,30.03,South,187,3.1,5.8,14,0.00,,---,0.00,VWS V14.01,2013-07-24 11:12:00,
2013-07-24 05:13:00,57.6,8.7,30.03,South,189,3.6,5.8,14,0.00,,---,0.00,VWS V14.01,2013-07-24 11:13:00,
2013-07-24 05:15:00,57.2,8.4,30.03,SSW,194,2.7,3.1,14,0.00,,---,0.00,VWS V14.01,2013-07-24 11:15:00,
2013-07-24 05:16:00,57.2,8.4,30.03,SSW,197,4.9,4.9,14,0.00,,---,0.00,VWS V14.01,2013-07-24 11:16:00,
2013-07-24 05:17:00,57.2,8.4,30.03,SSW,197,2.2,4.9,14,0.00,,---,0.00,VWS V14.01,2013-07-24 11:17:00,
2013-07-24 05:18:00,57.2,8.4,30.03,SSW,193,2.7,4.9,14,0.00,,---,0.00,VWS V14.01,2013-07-24 11:18:00,
2013-07-24 05:21:00,57.2,8.4,30.03,SSW,195,2.2,4.9,14,0.00,,---,0.00,VWS V14.01,2013-07-24 11:21:00,
2013-07-24 05:22:00,57.2,8.4,30.03,South,184,2.2,4.9,14,0.00,,---,0.00,VWS V14.01,2013-07-24 11:22:00,
2013-07-24 05:23:00,57.0,9.8,30.03,South,173,2.2,4.9,15,0.00,,---,0.00,VWS V14.01,2013-07-24 11:23:00,
2013-07-24 05:26:00,56.8,9.7,30.03,SSE,162,2.2,4.9,15,0.00,,---,0.00,VWS V14.01,2013-07-24 11:26:00,
2013-07-24 05:27:00,56.7,9.6,30.06,SSE,165,2.2,4.9,15,0.00,,---,0.00,VWS V14.01,2013-07-24 11:27:00,
2013-07-24 05:28:00,56.5,12.2,30.06,South,172,2.2,4.9,17,0.00,,---,0.00,VWS V14.01,2013-07-24 11:28:00,
2013-07-24 05:29:00,56.3,9.3,30.06,South,186,2.7,4.9,15,0.00,,---,0.00,VWS V14.01,2013-07-24 11:29:00,
2013-07-24 05:31:00,56.3,9.3,30.06,SSW,193,3.6,4.0,15,0.00,,---,0.00,VWS V14.01,2013-07-24 11:31:00,
2013-07-24 05:33:00,56.3,12.1,30.06,SSW,195,4.0,5.4,17,0.00,,---,0.00,VWS V14.01,2013-07-24 11:33:00,
2013-07-24 05:34:00,56.3,12.1,30.06,SSW,192,3.6,5.4,17,0.00,,---,0.00,VWS V14.01,2013-07-24 11:34:00,
2013-07-24 05:37:00,56.3,12.1,30.06,South,190,5.4,5.8,17,0.00,,---,0.00,VWS V14.01,2013-07-24 11:37:00,
2013-07-24 05:38:00,56.3,12.1,30.06,SSW,209,3.6,5.8,17,0.00,,---,0.00,VWS V14.01,2013-07-24 11:38:00,
2013-07-24 05:39:00,56.1,11.9,30.06,SSW,195,3.6,5.8,17,0.00,,---,0.00,VWS V14.01,2013-07-24 11:39:00,
2013-07-24 05:42:00,55.9,11.8,30.06,SSW,197,4.9,5.8,17,0.00,,---,0.00,VWS V14.01,2013-07-24 11:42:00,
2013-07-24 05:43:00,55.9,11.8,30.03,SSW,196,4.0,6.3,17,0.00,,---,0.00,VWS V14.01,2013-07-24 11:43:00,
2013-07-24 05:44:00,55.9,11.8,30.03,SSW,193,3.1,6.3,17,0.00,,---,0.00,VWS V14.01,2013-07-24 11:44:00,
2013-07-24 05:47:00,55.9,11.8,30.03,SSW,196,3.6,4.0,17,0.00,,---,0.00,VWS V14.01,2013-07-24 11:47:00,
2013-07-24 05:48:00,56.1,11.9,30.03,South,185,2.7,4.0,17,0.00,,---,0.00,VWS V14.01,2013-07-24 11:48:00,
2013-07-24 05:49:00,56.1,11.9,30.03,South,185,2.2,4.0,17,0.00,,---,0.00,VWS V14.01,2013-07-24 11:49:00,
2013-07-24 05:50:00,56.1,11.9,30.03,South,186,3.1,4.0,17,0.00,,---,0.00,VWS V14.01,2013-07-24 11:50:00,
2013-07-24 05:52:00,56.1,11.9,30.03,SSW,195,3.6,4.9,17,0.00,,---,0.00,VWS V14.01,2013-07-24 11:52:00,
2013-07-24 05:53:00,56.1,11.9,30.03,SSW,195,3.6,4.9,17,0.00,,---,0.00,VWS V14.01,2013-07-24 11:53:00,
2013-07-24 05:54:00,56.1,11.9,30.03,South,189,3.1,4.9,17,0.00,,---,0.00,VWS V14.01,2013-07-24 11:54:00,
2013-07-24 05:55:00,56.1,11.9,30.03,SSW,195,3.6,5.4,17,0.00,,---,0.00,VWS V14.01,2013-07-24 11:55:00,
2013-07-24 05:57:00,56.1,11.9,30.03,SSW,193,4.0,5.4,17,0.00,,---,0.00,VWS V14.01,2013-07-24 11:57:00,
2013-07-24 05:58:00,56.1,11.9,30.03,SSW,197,4.0,5.4,17,0.00,,---,0.00,VWS V14.01,2013-07-24 11:58:00,
2013-07-24 05:59:00,56.1,11.9,30.03,SSW,196,4.0,5.4,17,0.00,,---,0.00,VWS V14.01,2013-07-24 11:59:00,
2013-07-24 06:00:00,56.3,12.1,30.03,SSW,199,3.1,5.4,17,0.00,,---,0.00,VWS V14.01,2013-07-24 12:00:00,
2013-07-24 06:03:00,56.3,12.1,30.03,South,185,3.6,4.9,17,0.00,,---,0.00,VWS V14.01,2013-07-24 12:03:00,
2013-07-24 06:04:00,56.3,12.1,30.03,SSW,194,3.6,4.9,17,0.00,,---,0.00,VWS V14.01,2013-07-24 12:04:00,
2013-07-24 06:05:00,56.3,12.1,30.03,South,189,3.1,5.4,17,0.00,,---,0.00,VWS V14.01,2013-07-24 12:05:00,
2013-07-24 06:08:00,55.9,11.8,30.03,SSW,193,3.1,5.4,17,0.00,,---,0.00,VWS V14.01,2013-07-24 12:08:00,
2013-07-24 06:09:00,55.9,11.8,30.03,South,191,3.1,5.4,17,0.00,,---,0.00,VWS V14.01,2013-07-24 12:09:00,
2013-07-24 06:10:00,55.9,11.8,30.03,SSW,199,4.9,5.4,17,0.00,,---,0.00,VWS V14.01,2013-07-24 12:10:00,
2013-07-24 06:14:00,55.9,15.5,30.00,SSW,196,3.6,5.4,20,0.00,,---,0.00,VWS V14.01,2013-07-24 12:14:00,
2013-07-24 06:15:00,55.9,15.5,30.00,SSW,199,4.9,5.4,20,0.00,,---,0.00,VWS V14.01,2013-07-24 12:15:00,
2013-07-24 06:19:00,56.5,15.9,30.00,SSW,195,5.4,7.6,20,0.00,,---,0.00,VWS V14.01,2013-07-24 12:19:00,
2013-07-24 06:20:00,56.5,15.9,30.00,SSW,198,4.0,7.6,20,0.00,,---,0.00,VWS V14.01,2013-07-24 12:20:00,
2013-07-24 06:24:00,57.0,16.4,30.00,SSW,194,4.0,7.6,20,0.00,,---,0.00,VWS V14.01,2013-07-24 12:24:00,
2013-07-24 06:25:00,57.0,16.4,30.00,South,189,4.0,7.6,20,0.00,,---,0.00,VWS V14.01,2013-07-24 12:25:00,
2013-07-24 06:29:00,57.4,15.5,30.00,South,181,3.6,7.6,19,0.00,,---,0.00,VWS V14.01,2013-07-24 12:29:00,
2013-07-24 06:30:00,57.4,15.5,30.00,SSW,195,4.0,4.0,19,0.00,,---,0.00,VWS V14.01,2013-07-24 12:30:00,
2013-07-24 06:31:00,57.6,15.6,30.00,South,191,3.1,4.0,19,0.00,,---,0.00,VWS V14.01,2013-07-24 12:31:00,
2013-07-24 06:35:00,57.9,15.9,30.00,South,190,3.1,4.0,19,0.00,,---,0.00,VWS V14.01,2013-07-24 12:35:00,
2013-07-24 06:36:00,57.9,15.9,30.00,South,191,3.6,4.0,19,0.00,,---,0.00,VWS V14.01,2013-07-24 12:36:00,
2013-07-24 06:37:00,57.9,15.9,30.00,South,191,2.7,4.0,19,0.00,,---,0.00,VWS V14.01,2013-07-24 12:37:00,
2013-07-24 06:40:00,58.1,16.1,30.00,South,188,2.7,4.0,19,0.00,,---,0.00,VWS V14.01,2013-07-24 12:40:00,
2013-07-24 06:41:00,58.1,16.1,30.00,South,189,2.7,4.0,19,0.00,,---,0.00,VWS V14.01,2013-07-24 12:41:00,
2013-07-24 06:42:00,58.1,16.1,30.00,SSE,160,2.2,4.0,19,0.00,,---,0.00,VWS V14.01,2013-07-24 12:42:00,
2013-07-24 06:45:00,57.7,15.8,30.00,SE,146,2.2,2.7,19,0.00,,---,0.00,VWS V14.01,2013-07-24 12:45:00,
2013-07-24 06:46:00,57.6,15.6,30.00,SE,146,2.2,2.7,19,0.00,,---,0.00,VWS V14.01,2013-07-24 12:46:00,
2013-07-24 06:47:00,57.6,15.6,30.00,SE,146,2.2,2.7,19,0.00,,---,0.00,VWS V14.01,2013-07-24 12:47:00,
2013-07-24 06:50:00,56.8,18.4,30.00,South,181,2.7,2.7,22,0.00,,---,0.00,VWS V14.01,2013-07-24 12:50:00,
2013-07-24 06:51:00,56.7,18.3,30.00,South,186,2.7,3.6,22,0.00,,---,0.00,VWS V14.01,2013-07-24 12:51:00,
2013-07-24 06:52:00,56.7,18.3,30.00,South,186,3.1,3.6,22,0.00,,---,0.00,VWS V14.01,2013-07-24 12:52:00,
2013-07-24 06:53:00,56.7,18.3,30.00,South,186,2.2,3.6,22,0.00,,---,0.00,VWS V14.01,2013-07-24 12:53:00,
2013-07-24 06:55:00,56.5,18.1,30.00,SSW,193,2.7,3.6,22,0.00,,---,0.00,VWS V14.01,2013-07-24 12:55:00,
2013-07-24 06:57:00,56.5,18.1,30.00,SSW,194,2.7,3.6,22,0.00,,---,0.00,VWS V14.01,2013-07-24 12:57:00,
2013-07-24 06:58:00,56.7,18.3,30.03,South,189,3.6,5.8,22,0.00,,---,0.00,VWS V14.01,2013-07-24 12:58:00,
2013-07-24 07:00:00,56.8,21.4,30.03,SSW,200,2.7,3.6,25,0.00,,---,0.00,VWS V14.01,2013-07-24 13:00:00,
2013-07-24 07:02:00,56.8,21.4,30.03,SSW,199,2.2,3.6,25,0.00,,---,0.00,VWS V14.01,2013-07-24 13:02:00,
2013-07-24 07:03:00,57.0,21.6,30.03,SSW,196,4.0,4.0,25,0.00,,---,0.00,VWS V14.01,2013-07-24 13:03:00,
2013-07-24 07:06:00,57.2,20.8,30.03,SSW,202,3.6,4.9,24,0.00,,---,0.00,VWS V14.01,2013-07-24 13:06:00,
2013-07-24 07:07:00,57.2,20.8,30.03,South,186,4.9,4.9,24,0.00,,---,0.00,VWS V14.01,2013-07-24 13:07:00,
2013-07-24 07:08:00,57.4,20.9,30.03,SSW,193,3.1,4.9,24,0.00,,---,0.00,VWS V14.01,2013-07-24 13:08:00,
2013-07-24 07:11:00,57.6,21.1,30.03,South,188,2.2,4.9,24,0.00,,---,0.00,VWS V14.01,2013-07-24 13:11:00,
2013-07-24 07:12:00,57.7,21.2,30.03,SSW,196,4.0,5.4,24,0.00,,---,0.00,VWS V14.01,2013-07-24 13:12:00,
2013-07-24 07:13:00,57.9,21.4,30.03,SSW,198,6.3,6.3,24,0.00,,---,0.00,VWS V14.01,2013-07-24 13:13:00,
2013-07-24 07:16:00,58.3,21.7,30.03,SSW,196,3.1,4.0,24,0.00,,---,0.00,VWS V14.01,2013-07-24 13:16:00,
2013-07-24 07:17:00,58.5,21.8,30.03,SSW,196,2.7,4.0,24,0.00,,---,0.00,VWS V14.01,2013-07-24 13:17:00,
2013-07-24 07:18:00,58.5,21.8,30.03,SSW,196,3.6,5.4,24,0.00,,---,0.00,VWS V14.01,2013-07-24 13:18:00,
2013-07-24 07:19:00,58.6,22.0,30.03,SSW,199,3.6,5.4,24,0.00,,---,0.00,VWS V14.01,2013-07-24 13:19:00,
2013-07-24 07:22:00,58.8,22.1,30.03,SSW,199,3.6,5.4,24,0.00,,---,0.00,VWS V14.01,2013-07-24 13:22:00,
2013-07-24 07:23:00,58.8,22.1,30.03,SSW,199,2.7,5.4,24,0.00,,---,0.00,VWS V14.01,2013-07-24 13:23:00,
2013-07-24 07:24:00,58.8,22.1,30.03,SSW,197,4.0,5.4,24,0.00,,---,0.00,VWS V14.01,2013-07-24 13:24:00,
2013-07-24 07:27:00,59.4,22.6,30.03,SSW,209,0.0,5.4,24,0.00,,---,0.00,VWS V14.01,2013-07-24 13:27:00,
2013-07-24 07:28:00,59.4,22.6,30.03,SSW,209,0.0,5.4,24,0.00,,---,0.00,VWS V14.01,2013-07-24 13:28:00,
2013-07-24 07:29:00,59.7,22.9,30.03,SSW,209,2.7,5.4,24,0.00,,---,0.00,VWS V14.01,2013-07-24 13:29:00,
2013-07-24 07:32:00,60.3,23.4,30.03,SSW,194,3.1,4.5,24,0.00,,---,0.00,VWS V14.01,2013-07-24 13:32:00,
2013-07-24 07:33:00,60.3,23.4,30.03,SSW,194,2.2,4.5,24,0.00,,---,0.00,VWS V14.01,2013-07-24 13:33:00,
2013-07-24 07:34:00,60.4,23.5,30.03,SSW,194,2.7,4.5,24,0.00,,---,0.00,VWS V14.01,2013-07-24 13:34:00,
2013-07-24 07:37:00,60.8,23.8,30.03,South,190,2.2,4.5,24,0.00,,---,0.00,VWS V14.01,2013-07-24 13:37:00,
2013-07-24 07:38:00,61.0,24.0,30.03,South,190,0.0,4.5,24,0.00,,---,0.00,VWS V14.01,2013-07-24 13:38:00,
2013-07-24 07:39:00,61.2,24.1,30.03,SSE,157,2.7,4.5,24,0.00,,---,0.00,VWS V14.01,2013-07-24 13:39:00,
2013-07-24 07:40:00,61.2,24.1,30.03,SSE,157,2.7,4.5,24,0.00,,---,0.00,VWS V14.01,2013-07-24 13:40:00,
2013-07-24 07:43:00,61.7,24.6,30.03,SSE,157,0.0,4.5,24,0.00,,---,0.00,VWS V14.01,2013-07-24 13:43:00,
2013-07-24 07:44:00,61.7,24.6,30.03,SSE,157,2.2,4.5,24,0.00,,---,0.00,VWS V14.01,2013-07-24 13:44:00,
2013-07-24 07:45:00,61.9,24.7,30.03,SSE,157,2.7,2.7,24,0.00,,---,0.00,VWS V14.01,2013-07-24 13:45:00,
2013-07-24 07:48:00,62.1,24.9,30.03,SSE,157,0.0,3.1,24,0.00,,---,0.00,VWS V14.01,2013-07-24 13:48:00,
2013-07-24 07:49:00,62.1,24.9,30.03,SSE,157,2.7,3.1,24,0.00,,---,0.00,VWS V14.01,2013-07-24 13:49:00,
2013-07-24 07:50:00,62.2,25.0,30.03,South,177,2.7,3.1,24,0.00,,---,0.00,VWS V14.01,2013-07-24 13:50:00,
2013-07-24 07:51:00,62.2,25.0,30.03,South,177,0.0,3.1,24,0.00,,---,0.00,VWS V14.01,2013-07-24 13:51:00,
2013-07-24 07:53:00,62.4,25.2,30.03,South,179,0.0,3.1,24,0.00,,---,0.00,VWS V14.01,2013-07-24 13:53:00,
2013-07-24 07:55:00,62.4,25.2,30.03,South,179,0.0,3.1,24,0.00,,---,0.00,VWS V14.01,2013-07-24 13:55:00,
2013-07-24 07:56:00,62.6,25.3,30.03,South,182,0.0,3.1,24,0.00,,---,0.00,VWS V14.01,2013-07-24 13:56:00,
2013-07-24 07:59:00,62.8,25.5,30.03,South,176,2.2,3.1,24,0.00,,---,0.00,VWS V14.01,2013-07-24 13:59:00,
2013-07-24 08:00:00,63.0,25.6,30.03,South,176,2.2,3.1,24,0.00,,---,0.00,VWS V14.01,2013-07-24 14:00:00,
2013-07-24 08:02:00,63.0,25.6,30.03,South,186,2.7,3.1,24,0.00,,---,0.00,VWS V14.01,2013-07-24 14:02:00,
2013-07-24 08:05:00,63.1,24.8,30.03,South,185,2.7,3.1,23,0.00,,---,0.00,VWS V14.01,2013-07-24 14:05:00,
2013-07-24 08:08:00,63.1,24.8,30.03,South,185,0.0,3.1,23,0.00,,---,0.00,VWS V14.01,2013-07-24 14:08:00,
2013-07-24 08:10:00,63.5,25.1,30.03,South,185,0.0,3.1,23,0.00,,---,0.00,VWS V14.01,2013-07-24 14:10:00,
2013-07-24 08:13:00,63.7,25.2,30.03,South,185,2.2,3.1,23,0.00,,---,0.00,VWS V14.01,2013-07-24 14:13:00,
2013-07-24 08:15:00,64.0,25.5,30.03,South,185,0.0,0.0,23,0.00,,---,0.00,VWS V14.01,2013-07-24 14:15:00,
2013-07-24 08:16:00,64.0,25.5,30.03,South,185,0.0,0.0,23,0.00,,---,0.00,VWS V14.01,2013-07-24 14:16:00,
2013-07-24 08:17:00,64.0,25.5,30.03,South,185,0.0,0.0,23,0.00,,---,0.00,VWS V14.01,2013-07-24 14:17:00,
2013-07-24 08:18:00,64.6,26.0,30.03,SSE,160,2.7,2.7,23,0.00,,---,0.00,VWS V14.01,2013-07-24 14:18:00,
2013-07-24 08:20:00,64.8,26.1,30.03,SSE,160,2.2,2.7,23,0.00,,---,0.00,VWS V14.01,2013-07-24 14:20:00,
2013-07-24 08:21:00,64.9,26.3,30.03,SSE,160,2.2,2.7,23,0.00,,---,0.00,VWS V14.01,2013-07-24 14:21:00,
2013-07-24 08:22:00,64.9,26.3,30.03,SSE,161,2.2,2.7,23,0.00,,---,0.00,VWS V14.01,2013-07-24 14:22:00,
2013-07-24 08:24:00,65.1,26.4,30.03,SSE,162,2.7,2.7,23,0.00,,---,0.00,VWS V14.01,2013-07-24 14:24:00,
2013-07-24 08:25:00,65.3,26.6,30.03,South,186,2.2,3.6,23,0.00,,---,0.00,VWS V14.01,2013-07-24 14:25:00,
2013-07-24 08:26:00,65.3,26.6,30.03,South,186,0.0,3.6,23,0.00,,---,0.00,VWS V14.01,2013-07-24 14:26:00,
2013-07-24 08:27:00,65.3,26.6,30.03,South,186,2.2,3.6,23,0.00,,---,0.00,VWS V14.01,2013-07-24 14:27:00,
2013-07-24 08:29:00,65.5,26.7,30.03,South,175,2.2,3.6,23,0.00,,---,0.00,VWS V14.01,2013-07-24 14:29:00,
2013-07-24 08:30:00,65.5,26.7,30.03,South,175,2.2,2.2,23,0.00,,---,0.00,VWS V14.01,2013-07-24 14:30:00,
2013-07-24 08:31:00,65.7,26.9,30.03,SSE,162,0.0,2.7,23,0.00,,---,0.00,VWS V14.01,2013-07-24 14:31:00,
2013-07-24 08:32:00,65.8,27.0,30.03,SSE,162,2.2,2.7,23,0.00,,---,0.00,VWS V14.01,2013-07-24 14:32:00,
2013-07-24 08:33:00,65.8,27.0,30.03,SSE,162,2.2,2.7,23,0.00,,---,0.00,VWS V14.01,2013-07-24 14:33:00,
2013-07-24 08:34:00,65.8,23.7,30.03,SSE,162,2.2,2.7,20,0.00,,---,0.00,VWS V14.01,2013-07-24 14:34:00,
2013-07-24 08:35:00,65.8,27.0,30.03,SSE,162,2.2,2.7,23,0.00,,---,0.00,VWS V14.01,2013-07-24 14:35:00,
2013-07-24 08:36:00,66.0,27.2,30.03,South,176,3.1,3.1,23,0.00,,---,0.00,VWS V14.01,2013-07-24 14:36:00,
2013-07-24 08:38:00,66.0,23.8,30.03,South,181,2.7,3.1,20,0.00,,---,0.00,VWS V14.01,2013-07-24 14:38:00,
2013-07-24 08:39:00,66.0,23.8,30.03,South,181,0.0,3.1,20,0.00,,---,0.00,VWS V14.01,2013-07-24 14:39:00,
2013-07-24 08:40:00,66.2,24.0,30.03,SSE,156,2.7,3.1,20,0.00,,---,0.00,VWS V14.01,2013-07-24 14:40:00,
2013-07-24 08:42:00,66.6,24.3,30.03,SSE,154,0.0,3.1,20,0.00,,---,0.00,VWS V14.01,2013-07-24 14:42:00,
2013-07-24 08:43:00,66.7,24.4,30.03,SSE,154,0.0,3.1,20,0.00,,---,0.00,VWS V14.01,2013-07-24 14:43:00,
2013-07-24 08:44:00,66.9,24.6,30.03,SSE,154,0.0,3.1,20,0.00,,---,0.00,VWS V14.01,2013-07-24 14:44:00,
2013-07-24 08:46:00,67.1,20.9,30.03,SSE,154,0.0,0.0,17,0.00,,---,0.00,VWS V14.01,2013-07-24 14:46:00,
2013-07-24 08:47:00,67.3,21.0,30.03,SSE,154,0.0,0.0,17,0.00,,---,0.00,VWS V14.01,2013-07-24 14:47:00,
2013-07-24 08:48:00,67.5,21.2,30.03,SSE,154,2.2,2.7,17,0.00,,---,0.00,VWS V14.01,2013-07-24 14:48:00,
2013-07-24 08:49:00,67.5,21.2,30.03,SSE,153,2.2,2.7,17,0.00,,---,0.00,VWS V14.01,2013-07-24 14:49:00,
2013-07-24 08:51:00,67.5,21.2,30.03,SSE,153,0.0,2.7,17,0.00,,---,0.00,VWS V14.01,2013-07-24 14:51:00,
2013-07-24 08:52:00,67.6,21.3,30.03,SSE,153,2.2,2.7,17,0.00,,---,0.00,VWS V14.01,2013-07-24 14:52:00,
2013-07-24 08:53:00,67.6,21.3,30.03,East,83,2.7,3.1,17,0.00,,---,0.00,VWS V14.01,2013-07-24 14:53:00,
2013-07-24 08:54:00,67.6,21.3,30.03,NNE,14,2.7,3.1,17,0.00,,---,0.00,VWS V14.01,2013-07-24 14:54:00,
2013-07-24 08:57:00,67.8,21.5,30.03,NNE,14,0.0,3.1,17,0.00,,---,0.00,VWS V14.01,2013-07-24 14:57:00,
2013-07-24 08:58:00,67.8,21.5,30.03,NNE,14,3.1,3.6,17,0.00,,---,0.00,VWS V14.01,2013-07-24 14:58:00,
2013-07-24 08:59:00,68.0,21.6,30.03,NNE,14,3.1,3.6,17,0.00,,---,0.00,VWS V14.01,2013-07-24 14:59:00,
2013-07-24 09:00:00,68.0,21.6,30.03,North,6,3.6,3.6,17,0.00,,---,0.00,VWS V14.01,2013-07-24 15:00:00,
2013-07-24 09:02:00,68.2,21.7,30.03,North,6,3.1,3.6,17,0.00,,---,0.00,VWS V14.01,2013-07-24 15:02:00,
2013-07-24 09:03:00,68.4,21.9,30.03,NNE,16,3.1,3.6,17,0.00,,---,0.00,VWS V14.01,2013-07-24 15:03:00,
2013-07-24 09:04:00,68.4,21.9,30.03,NNE,20,3.1,3.6,17,0.00,,---,0.00,VWS V14.01,2013-07-24 15:04:00,
2013-07-24 09:05:00,68.4,21.9,30.03,NNE,16,2.7,4.0,17,0.00,,---,0.00,VWS V14.01,2013-07-24 15:05:00,
2013-07-24 09:07:00,68.5,22.0,30.03,NNE,31,2.2,4.0,17,0.00,,---,0.00,VWS V14.01,2013-07-24 15:07:00,
2013-07-24 09:09:00,68.7,22.2,30.03,North,4,3.6,4.0,17,0.00,,---,0.00,VWS V14.01,2013-07-24 15:09:00,
2013-07-24 09:11:00,69.1,19.5,30.03,North,11,3.6,4.0,15,0.00,,---,0.00,VWS V14.01,2013-07-24 15:11:00,
2013-07-24 09:12:00,69.3,19.7,30.03,North,1,2.7,4.0,15,0.00,,---,0.00,VWS V14.01,2013-07-24 15:12:00,
2013-07-24 09:14:00,69.4,19.8,30.03,North,7,2.2,4.0,15,0.00,,---,0.00,VWS V14.01,2013-07-24 15:14:00,
2013-07-24 09:17:00,70.0,18.6,30.03,NNE,19,4.0,5.8,14,0.00,,---,0.00,VWS V14.01,2013-07-24 15:17:00,
2013-07-24 09:19:00,70.3,18.9,30.03,NE,48,2.7,5.8,14,0.00,,---,0.00,VWS V14.01,2013-07-24 15:19:00,
2013-07-24 09:22:00,70.7,19.2,30.03,NNE,21,3.1,5.8,14,0.00,,---,0.00,VWS V14.01,2013-07-24 15:22:00,
2013-07-24 09:23:00,70.7,19.2,30.03,NNE,31,3.1,5.8,14,0.00,,---,0.00,VWS V14.01,2013-07-24 15:23:00,
2013-07-24 09:24:00,70.9,19.4,30.03,NNE,25,4.0,5.8,14,0.00,,---,0.00,VWS V14.01,2013-07-24 15:24:00,
2013-07-24 09:27:00,70.9,19.4,30.03,North,3,3.6,5.8,14,0.00,,---,0.00,VWS V14.01,2013-07-24 15:27:00,
2013-07-24 09:28:00,70.9,19.4,30.03,NNE,17,3.1,5.8,14,0.00,,---,0.00,VWS V14.01,2013-07-24 15:28:00,
2013-07-24 09:29:00,70.9,19.4,30.03,NNE,18,2.7,5.8,14,0.00,,---,0.00,VWS V14.01,2013-07-24 15:29:00,
2013-07-24 09:32:00,70.5,19.1,30.03,NNE,14,2.7,3.6,14,0.00,,---,0.00,VWS V14.01,2013-07-24 15:32:00,
2013-07-24 09:33:00,70.3,18.9,30.03,NNE,15,3.1,3.6,14,0.00,,---,0.00,VWS V14.01,2013-07-24 15:33:00,
2013-07-24 09:34:00,70.3,18.9,30.03,NNE,18,3.1,3.6,14,0.00,,---,0.00,VWS V14.01,2013-07-24 15:34:00,
2013-07-24 09:37:00,70.5,19.1,30.03,North,357,2.2,3.6,14,0.00,,---,0.00,VWS V14.01,2013-07-24 15:37:00,
2013-07-24 09:38:00,70.7,19.2,30.03,North,357,2.7,3.6,14,0.00,,---,0.00,VWS V14.01,2013-07-24 15:38:00,
2013-07-24 09:39:00,70.9,19.4,30.03,North,357,2.7,3.6,14,0.00,,---,0.00,VWS V14.01,2013-07-24 15:39:00,
2013-07-24 09:42:00,71.4,19.8,30.03,NNE,14,3.1,4.0,14,0.00,,---,0.00,VWS V14.01,2013-07-24 15:42:00,
2013-07-24 09:43:00,71.4,19.8,30.03,NNE,14,2.7,4.0,14,0.00,,---,0.00,VWS V14.01,2013-07-24 15:43:00,
2013-07-24 09:44:00,71.4,19.8,30.03,NNE,14,2.7,4.0,14,0.00,,---,0.00,VWS V14.01,2013-07-24 15:44:00,
2013-07-24 09:47:00,71.8,20.1,30.03,NNW,343,2.7,3.1,14,0.00,,---,0.00,VWS V14.01,2013-07-24 15:47:00,
2013-07-24 09:48:00,71.8,20.1,30.03,NNW,343,2.2,3.1,14,0.00,,---,0.00,VWS V14.01,2013-07-24 15:48:00,
2013-07-24 09:49:00,72.1,20.4,30.03,NNW,343,0.0,3.1,14,0.00,,---,0.00,VWS V14.01,2013-07-24 15:49:00,
2013-07-24 09:50:00,72.5,20.6,30.03,North,2,3.1,3.1,14,0.00,,---,0.00,VWS V14.01,2013-07-24 15:50:00,
2013-07-24 09:52:00,73.0,21.1,30.03,North,0,2.2,3.6,14,0.00,,---,0.00,VWS V14.01,2013-07-24 15:52:00,
2013-07-24 09:53:00,73.0,21.1,30.03,North,357,3.1,3.6,14,0.00,,---,0.00,VWS V14.01,2013-07-24 15:53:00,
2013-07-24 09:54:00,73.2,21.2,30.03,North,7,3.6,3.6,14,0.00,,---,0.00,VWS V14.01,2013-07-24 15:54:00,
2013-07-24 09:55:00,73.2,21.2,30.03,North,4,3.1,3.6,14,0.00,,---,0.00,VWS V14.01,2013-07-24 15:55:00,
2013-07-24 09:56:00,73.2,21.2,30.03,North,5,0.0,3.6,14,0.00,,---,0.00,VWS V14.01,2013-07-24 15:56:00,
2013-07-24 09:58:00,73.4,19.6,30.03,WNW,293,0.0,3.6,13,0.00,,---,0.00,VWS V14.01,2013-07-24 15:58:00,
2013-07-24 09:59:00,73.6,19.8,30.03,NNE,21,2.7,3.6,13,0.00,,---,0.00,VWS V14.01,2013-07-24 15:59:00,
2013-07-24 10:00:00,73.8,19.9,30.03,North,357,5.4,5.4,13,0.00,,---,0.00,VWS V14.01,2013-07-24 16:00:00,
2013-07-24 10:01:00,73.8,19.9,30.03,NNE,19,2.7,5.4,13,0.00,,---,0.00,VWS V14.01,2013-07-24 16:01:00,
2013-07-24 10:03:00,73.8,19.9,30.03,NNE,31,4.0,5.4,13,0.00,,---,0.00,VWS V14.01,2013-07-24 16:03:00,
2013-07-24 10:04:00,73.9,20.0,30.03,North,10,3.1,5.4,13,0.00,,---,0.00,VWS V14.01,2013-07-24 16:04:00,
2013-07-24 10:05:00,73.9,20.0,30.03,North,357,4.0,5.4,13,0.00,,---,0.00,VWS V14.01,2013-07-24 16:05:00,
2013-07-24 10:07:00,73.8,19.9,30.03,North,353,2.2,5.4,13,0.00,,---,0.00,VWS V14.01,2013-07-24 16:07:00,
2013-07-24 10:08:00,73.8,16.0,30.03,NNE,13,4.0,5.4,11,0.00,,---,0.00,VWS V14.01,2013-07-24 16:08:00,
2013-07-24 10:09:00,73.8,16.0,30.03,North,10,3.1,5.4,11,0.00,,---,0.00,VWS V14.01,2013-07-24 16:09:00,
2013-07-24 10:10:00,73.8,19.9,30.03,North,0,4.0,5.8,13,0.00,,---,0.00,VWS V14.01,2013-07-24 16:10:00,
2013-07-24 10:12:00,73.8,19.9,30.03,ENE,66,2.2,5.8,13,0.00,,---,0.00,VWS V14.01,2013-07-24 16:12:00,
2013-07-24 10:14:00,73.9,20.0,30.03,ESE,102,2.7,5.8,13,0.00,,---,0.00,VWS V14.01,2013-07-24 16:14:00,
2013-07-24 10:15:00,74.3,16.4,30.03,ESE,108,3.6,5.8,11,0.00,,---,0.00,VWS V14.01,2013-07-24 16:15:00,
2013-07-24 10:17:00,75.0,17.0,30.03,East,83,2.7,4.9,11,0.00,,---,0.00,VWS V14.01,2013-07-24 16:17:00,
2013-07-24 10:19:00,75.7,15.4,30.03,North,0,3.6,4.9,10,0.00,,---,0.00,VWS V14.01,2013-07-24 16:19:00,
2013-07-24 10:20:00,76.1,15.6,30.03,North,0,3.6,4.9,10,0.00,,---,0.00,VWS V14.01,2013-07-24 16:20:00,
2013-07-24 10:22:00,76.3,15.8,30.03,NNE,25,3.1,4.9,10,0.00,,---,0.00,VWS V14.01,2013-07-24 16:22:00,
2013-07-24 10:24:00,76.5,15.9,30.03,North,9,3.1,5.8,10,0.00,,---,0.00,VWS V14.01,2013-07-24 16:24:00,
2013-07-24 10:25:00,76.3,15.8,30.03,NNE,25,3.1,5.8,10,0.00,,---,0.00,VWS V14.01,2013-07-24 16:25:00,
2013-07-24 10:27:00,75.9,15.5,30.03,ENE,60,2.7,5.8,10,0.00,,---,0.00,VWS V14.01,2013-07-24 16:27:00,
2013-07-24 10:29:00,76.1,15.6,30.03,NE,54,0.0,5.8,10,0.00,,---,0.00,VWS V14.01,2013-07-24 16:29:00,
2013-07-24 10:30:00,76.5,15.9,30.03,ENE,65,0.0,2.2,10,0.00,,---,0.00,VWS V14.01,2013-07-24 16:30:00,
2013-07-24 10:32:00,77.0,16.3,30.03,ESE,109,2.2,3.6,10,0.00,,---,0.00,VWS V14.01,2013-07-24 16:32:00,
2013-07-24 10:33:00,77.0,16.3,30.03,ESE,109,0.0,3.6,10,0.00,,---,0.00,VWS V14.01,2013-07-24 16:33:00,
2013-07-24 10:34:00,77.7,16.9,30.03,NNE,18,3.6,4.9,10,0.00,,---,0.00,VWS V14.01,2013-07-24 16:34:00,
2013-07-24 10:35:00,77.7,16.9,30.03,NNE,18,4.0,4.9,10,0.00,,---,0.00,VWS V14.01,2013-07-24 16:35:00,
2013-07-24 10:38:00,77.5,16.7,30.03,NW,317,2.7,4.9,10,0.00,,---,0.00,VWS V14.01,2013-07-24 16:38:00,
2013-07-24 10:40:00,77.5,16.7,30.03,NE,56,0.0,4.9,10,0.00,,---,0.00,VWS V14.01,2013-07-24 16:40:00,
2013-07-24 10:41:00,78.1,17.1,30.03,NNE,29,3.1,4.9,10,0.00,,---,0.00,VWS V14.01,2013-07-24 16:41:00,
2013-07-24 10:43:00,78.4,17.4,30.03,North,0,2.7,4.9,10,0.00,,---,0.00,VWS V14.01,2013-07-24 16:43:00,
2013-07-24 10:45:00,78.4,17.4,30.03,North,9,4.0,4.0,10,0.00,,---,0.00,VWS V14.01,2013-07-24 16:45:00,
2013-07-24 10:46:00,78.3,17.3,30.03,North,7,4.0,4.0,10,0.00,,---,0.00,VWS V14.01,2013-07-24 16:46:00,
2013-07-24 10:48:00,77.9,17.0,30.03,NNE,15,4.9,4.9,10,0.00,,---,0.00,VWS V14.01,2013-07-24 16:48:00,
2013-07-24 10:50:00,77.7,16.9,30.03,North,3,4.9,4.9,10,0.00,,---,0.00,VWS V14.01,2013-07-24 16:50:00,
2013-07-24 10:51:00,77.4,16.6,30.03,NNW,343,2.7,4.9,10,0.00,,---,0.00,VWS V14.01,2013-07-24 16:51:00,
2013-07-24 10:53:00,77.4,16.6,30.03,North,353,2.7,4.9,10,0.00,,---,0.00,VWS V14.01,2013-07-24 16:53:00,
2013-07-24 10:55:00,77.7,16.9,30.03,North,0,5.4,5.4,10,0.00,,---,0.00,VWS V14.01,2013-07-24 16:55:00,
2013-07-24 10:57:00,77.7,16.9,30.03,North,353,2.7,5.8,10,0.00,,---,0.00,VWS V14.01,2013-07-24 16:57:00,
2013-07-24 10:58:00,77.7,16.9,30.03,North,357,2.7,5.8,10,0.00,,---,0.00,VWS V14.01,2013-07-24 16:58:00,
2013-07-24 10:59:00,77.7,16.9,30.03,North,3,2.2,5.8,10,0.00,,---,0.00,VWS V14.01,2013-07-24 16:59:00,
2013-07-24 11:00:00,77.9,17.0,30.03,NNE,27,4.5,4.5,10,0.00,,---,0.00,VWS V14.01,2013-07-24 17:00:00,
2013-07-24 11:01:00,77.9,17.0,30.03,North,5,3.1,4.5,10,0.00,,---,0.00,VWS V14.01,2013-07-24 17:01:00,
2013-07-24 11:02:00,77.9,17.0,30.03,North,7,3.6,4.5,10,0.00,,---,0.00,VWS V14.01,2013-07-24 17:02:00,
2013-07-24 11:03:00,77.9,17.0,30.03,North,4,3.1,4.5,10,0.00,,---,0.00,VWS V14.01,2013-07-24 17:03:00,
2013-07-24 11:04:00,77.9,17.0,30.03,NNE,28,2.2,4.5,10,0.00,,---,0.00,VWS V14.01,2013-07-24 17:04:00,
2013-07-24 11:06:00,77.9,17.0,30.03,NNE,26,3.1,4.5,10,0.00,,---,0.00,VWS V14.01,2013-07-24 17:06:00,
2013-07-24 11:07:00,78.1,17.1,30.03,North,357,3.1,4.9,10,0.00,,---,0.00,VWS V14.01,2013-07-24 17:07:00,
2013-07-24 11:08:00,78.1,17.1,30.03,North,4,2.7,4.9,10,0.00,,---,0.00,VWS V14.01,2013-07-24 17:08:00,
2013-07-24 11:09:00,78.1,17.1,30.03,North,10,2.7,4.9,10,0.00,,---,0.00,VWS V14.01,2013-07-24 17:09:00,
2013-07-24 11:11:00,78.3,17.3,30.03,NE,52,3.1,4.9,10,0.00,,---,0.00,VWS V14.01,2013-07-24 17:11:00,
2013-07-24 11:13:00,78.3,17.3,30.03,NNE,31,3.6,4.9,10,0.00,,---,0.00,VWS V14.01,2013-07-24 17:13:00,
2013-07-24 11:14:00,78.3,17.3,30.03,ENE,62,2.2,4.9,10,0.00,,---,0.00,VWS V14.01,2013-07-24 17:14:00,
2013-07-24 11:16:00,78.1,17.1,30.03,North,6,3.1,3.1,10,0.00,,---,0.00,VWS V14.01,2013-07-24 17:16:00,
2013-07-24 11:17:00,78.1,17.1,30.03,North,9,3.1,3.1,10,0.00,,---,0.00,VWS V14.01,2013-07-24 17:17:00,
2013-07-24 11:18:00,78.1,17.1,30.03,NNE,19,3.6,4.0,10,0.00,,---,0.00,VWS V14.01,2013-07-24 17:18:00,
2013-07-24 11:19:00,77.9,17.0,30.03,North,8,4.0,4.0,10,0.00,,---,0.00,VWS V14.01,2013-07-24 17:19:00,
2013-07-24 11:21:00,77.7,16.9,30.03,North,2,4.0,5.4,10,0.00,,---,0.00,VWS V14.01,2013-07-24 17:21:00,
2013-07-24 11:22:00,77.5,16.7,30.03,North,8,4.0,5.4,10,0.00,,---,0.00,VWS V14.01,2013-07-24 17:22:00,
2013-07-24 11:23:00,77.5,16.7,30.03,North,8,2.2,5.4,10,0.00,,---,0.00,VWS V14.01,2013-07-24 17:23:00,
2013-07-24 11:24:00,77.2,16.5,30.03,NNE,20,2.7,5.4,10,0.00,,---,0.00,VWS V14.01,2013-07-24 17:24:00,
2013-07-24 11:27:00,77.4,16.6,30.03,East,92,2.2,5.4,10,0.00,,---,0.00,VWS V14.01,2013-07-24 17:27:00,
2013-07-24 11:28:00,77.5,16.7,30.00,East,96,2.7,5.4,10,0.00,,---,0.00,VWS V14.01,2013-07-24 17:28:00,
2013-07-24 11:29:00,78.1,17.1,30.00,North,6,2.7,5.4,10,0.00,,---,0.00,VWS V14.01,2013-07-24 17:29:00,
2013-07-24 11:32:00,78.6,17.5,30.00,NNE,26,3.6,4.0,10,0.00,,---,0.00,VWS V14.01,2013-07-24 17:32:00,
2013-07-24 11:33:00,78.6,17.5,30.00,NNW,327,4.0,4.0,10,0.00,,---,0.00,VWS V14.01,2013-07-24 17:33:00,
2013-07-24 11:34:00,78.6,17.5,30.00,NW,316,2.7,4.0,10,0.00,,---,0.00,VWS V14.01,2013-07-24 17:34:00,
2013-07-24 11:37:00,78.6,17.5,30.00,WNW,298,2.7,4.0,10,0.00,,---,0.00,VWS V14.01,2013-07-24 17:37:00,
2013-07-24 11:38:00,78.6,17.5,30.00,North,357,3.1,4.0,10,0.00,,---,0.00,VWS V14.01,2013-07-24 17:38:00,
2013-07-24 11:39:00,78.6,17.5,30.00,North,357,2.7,4.0,10,0.00,,---,0.00,VWS V14.01,2013-07-24 17:39:00,
2013-07-24 11:42:00,78.6,17.5,30.03,North,353,3.6,4.0,10,0.00,,---,0.00,VWS V14.01,2013-07-24 17:42:00,
2013-07-24 11:43:00,78.8,17.7,30.03,North,1,3.1,4.0,10,0.00,,---,0.00,VWS V14.01,2013-07-24 17:43:00,
2013-07-24 11:44:00,78.8,17.7,30.03,North,353,3.6,4.9,10,0.00,,---,0.00,VWS V14.01,2013-07-24 17:44:00,
2013-07-24 11:45:00,78.6,17.5,30.03,North,5,3.6,4.9,10,0.00,,---,0.00,VWS V14.01,2013-07-24 17:45:00,
2013-07-24 11:47:00,78.6,17.5,30.03,North,0,3.6,5.8,10,0.00,,---,0.00,VWS V14.01,2013-07-24 17:47:00,
2013-07-24 11:49:00,78.4,17.4,30.03,North,7,3.1,5.8,10,0.00,,---,0.00,VWS V14.01,2013-07-24 17:49:00,
2013-07-24 11:50:00,78.4,17.4,30.03,North,357,2.7,5.8,10,0.00,,---,0.00,VWS V14.01,2013-07-24 17:50:00,
2013-07-24 11:52:00,78.4,17.4,30.03,ENE,58,2.7,5.8,10,0.00,,---,0.00,VWS V14.01,2013-07-24 17:52:00,
2013-07-24 11:54:00,78.6,17.5,30.03,NNE,19,2.7,5.8,10,0.00,,---,0.00,VWS V14.01,2013-07-24 17:54:00,
2013-07-24 11:56:00,78.8,17.7,30.03,ESE,112,3.1,5.8,10,0.00,,---,0.00,VWS V14.01,2013-07-24 17:56:00,
2013-07-24 11:58:00,79.3,18.1,30.03,East,93,0.0,5.8,10,0.00,,---,0.00,VWS V14.01,2013-07-24 17:58:00,
2013-07-24 11:59:00,79.3,18.1,30.03,NE,44,0.0,5.8,10,0.00,,---,0.00,VWS V14.01,2013-07-24 17:59:00,
2013-07-24 12:00:00,79.7,18.4,30.03,ENE,72,2.2,5.8,10,0.00,,---,0.00,VWS V14.01,2013-07-24 18:00:00,
2013-07-24 12:01:00,79.9,18.5,30.03,North,357,2.7,3.1,10,0.00,,---,0.00,VWS V14.01,2013-07-24 18:01:00,
2013-07-24 12:03:00,80.1,18.6,30.03,SE,138,6.3,6.3,10,0.00,,---,0.00,VWS V14.01,2013-07-24 18:03:00,
2013-07-24 12:04:00,80.1,18.6,30.03,East,100,3.6,6.3,10,0.00,,---,0.00,VWS V14.01,2013-07-24 18:04:00,
2013-07-24 12:05:00,80.2,18.8,30.03,NE,54,0.0,6.3,10,0.00,,---,0.00,VWS V14.01,2013-07-24 18:05:00,
2013-07-24 12:07:00,80.2,18.8,30.03,ESE,110,4.0,6.3,10,0.00,,---,0.00,VWS V14.01,2013-07-24 18:07:00,
2013-07-24 12:09:00,80.6,16.6,30.03,NNE,18,4.0,6.3,9,0.00,,---,0.00,VWS V14.01,2013-07-24 18:09:00,
2013-07-24 12:10:00,80.6,16.6,30.03,North,9,5.8,6.3,9,0.00,,---,0.00,VWS V14.01,2013-07-24 18:10:00,
2013-07-24 12:12:00,80.4,18.9,30.00,North,1,5.4,6.3,10,0.00,,---,0.00,VWS V14.01,2013-07-24 18:12:00,
2013-07-24 12:14:00,80.4,18.9,30.00,North,3,2.7,6.3,10,0.00,,---,0.00,VWS V14.01,2013-07-24 18:14:00,
2013-07-24 12:16:00,80.2,18.8,30.00,North,6,4.0,5.4,10,0.00,,---,0.00,VWS V14.01,2013-07-24 18:16:00,
2013-07-24 12:17:00,80.2,18.8,30.00,North,9,0.0,5.4,10,0.00,,---,0.00,VWS V14.01,2013-07-24 18:17:00,
2013-07-24 12:18:00,80.1,18.6,30.00,NNE,24,4.5,5.4,10,0.00,,---,0.00,VWS V14.01,2013-07-24 18:18:00,
2013-07-24 12:19:00,80.2,18.8,30.00,East,80,2.2,5.4,10,0.00,,---,0.00,VWS V14.01,2013-07-24 18:19:00,
2013-07-24 12:21:00,80.2,18.8,30.00,NNE,29,4.0,5.4,10,0.00,,---,0.00,VWS V14.01,2013-07-24 18:21:00,
2013-07-24 12:22:00,80.4,18.9,30.00,North,11,4.0,5.4,10,0.00,,---,0.00,VWS V14.01,2013-07-24 18:22:00,
2013-07-24 12:23:00,80.6,16.6,30.00,NNE,27,4.0,5.4,9,0.00,,---,0.00,VWS V14.01,2013-07-24 18:23:00,
2013-07-24 12:24:00,80.6,16.6,30.00,North,6,3.6,5.4,9,0.00,,---,0.00,VWS V14.01,2013-07-24 18:24:00,
2013-07-24 12:26:00,80.8,16.7,30.00,NNE,17,2.2,5.4,9,0.00,,---,0.00,VWS V14.01,2013-07-24 18:26:00,
2013-07-24 12:27:00,80.8,16.7,30.00,North,0,4.9,5.4,9,0.00,,---,0.00,VWS V14.01,2013-07-24 18:27:00,
2013-07-24 12:29:00,80.8,16.7,30.00,NE,55,2.7,5.4,9,0.00,,---,0.00,VWS V14.01,2013-07-24 18:29:00,
2013-07-24 12:32:00,80.8,16.7,30.00,North,353,5.4,5.4,9,0.00,,---,0.00,VWS V14.01,2013-07-24 18:32:00,
2013-07-24 12:34:00,81.0,16.9,30.00,ESE,106,5.4,5.4,9,0.00,,---,0.00,VWS V14.01,2013-07-24 18:34:00,
2013-07-24 12:35:00,81.1,17.0,30.00,ESE,110,2.7,5.4,9,0.00,,---,0.00,VWS V14.01,2013-07-24 18:35:00,
2013-07-24 12:37:00,81.7,17.4,30.00,East,92,0.0,5.4,9,0.00,,---,0.00,VWS V14.01,2013-07-24 18:37:00,
2013-07-24 12:39:00,82.2,17.8,30.00,NNE,18,2.7,5.4,9,0.00,,---,0.00,VWS V14.01,2013-07-24 18:39:00,
2013-07-24 12:40:00,82.2,12.1,30.00,NNW,344,4.0,5.4,7,0.00,,---,0.00,VWS V14.01,2013-07-24 18:40:00,
2013-07-24 12:42:00,82.4,8.8,30.00,ESE,109,2.7,5.4,6,0.00,,---,0.00,VWS V14.01,2013-07-24 18:42:00,
2013-07-24 12:45:00,82.6,8.9,30.00,SE,137,4.0,5.8,6,0.00,,---,0.00,VWS V14.01,2013-07-24 18:45:00,
2013-07-24 12:46:00,82.6,8.9,30.00,NE,50,2.7,4.0,6,0.00,,---,0.00,VWS V14.01,2013-07-24 18:46:00,
2013-07-24 12:47:00,82.8,9.0,30.00,ESE,112,4.9,4.9,6,0.00,,---,0.00,VWS V14.01,2013-07-24 18:47:00,
2013-07-24 12:50:00,82.9,9.1,30.00,ESE,119,3.6,4.9,6,0.00,,---,0.00,VWS V14.01,2013-07-24 18:50:00,
2013-07-24 12:52:00,82.9,9.1,30.00,SE,137,0.0,4.9,6,0.00,,---,0.00,VWS V14.01,2013-07-24 18:52:00,
2013-07-24 12:53:00,82.9,9.1,30.00,ESE,102,3.1,4.9,6,0.00,,---,0.00,VWS V14.01,2013-07-24 18:53:00,
2013-07-24 12:55:00,83.5,9.5,30.00,South,179,2.7,6.3,6,0.00,,---,0.00,VWS V14.01,2013-07-24 18:55:00,
2013-07-24 12:57:00,83.7,9.7,30.00,SE,141,5.4,6.3,6,0.00,,---,0.00,VWS V14.01,2013-07-24 18:57:00,
2013-07-24 12:58:00,83.7,9.7,30.00,ESE,119,4.0,6.3,6,0.00,,---,0.00,VWS V14.01,2013-07-24 18:58:00,
2013-07-24 13:00:00,83.8,9.8,30.00,NNE,15,4.0,4.9,6,0.00,,---,0.00,VWS V14.01,2013-07-24 19:00:00,
2013-07-24 13:02:00,83.8,19.0,30.00,ENE,78,2.7,5.4,9,0.00,,---,0.00,VWS V14.01,2013-07-24 19:02:00,
2013-07-24 13:03:00,84.0,9.9,30.00,East,97,2.7,5.4,6,0.00,,---,0.00,VWS V14.01,2013-07-24 19:03:00,
2013-07-24 13:05:00,84.4,10.2,30.00,ESE,102,0.0,5.4,6,0.00,,---,0.00,VWS V14.01,2013-07-24 19:05:00,
2013-07-24 13:08:00,84.7,10.4,30.00,East,85,2.7,5.4,6,0.00,,---,0.00,VWS V14.01,2013-07-24 19:08:00,
2013-07-24 13:11:00,84.9,10.6,30.00,NNE,16,5.8,6.3,6,0.00,,---,0.00,VWS V14.01,2013-07-24 19:11:00,
2013-07-24 13:13:00,84.9,10.6,30.00,NE,47,3.6,6.3,6,0.00,,---,0.00,VWS V14.01,2013-07-24 19:13:00,
2013-07-24 13:14:00,84.7,10.4,30.00,NNE,26,5.4,6.3,6,0.00,,---,0.00,VWS V14.01,2013-07-24 19:14:00,
2013-07-24 13:16:00,84.6,10.3,30.00,WNW,299,3.1,5.8,6,0.00,,---,0.00,VWS V14.01,2013-07-24 19:16:00,
2013-07-24 13:18:00,84.6,10.3,30.00,WNW,299,2.7,5.8,6,0.00,,---,0.00,VWS V14.01,2013-07-24 19:18:00,
2013-07-24 13:19:00,84.6,10.3,30.00,NNW,342,3.1,5.8,6,0.00,,---,0.00,VWS V14.01,2013-07-24 19:19:00,
2013-07-24 13:22:00,84.7,10.4,30.00,North,8,6.3,6.3,6,0.00,,---,0.00,VWS V14.01,2013-07-24 19:22:00,
2013-07-24 13:23:00,85.1,10.7,30.00,North,353,3.6,6.3,6,0.00,,---,0.00,VWS V14.01,2013-07-24 19:23:00,
2013-07-24 13:24:00,85.1,10.7,30.00,NNW,330,0.0,6.3,6,0.00,,---,0.00,VWS V14.01,2013-07-24 19:24:00,
2013-07-24 13:27:00,85.3,10.8,30.00,NNE,13,4.0,6.3,6,0.00,,---,0.00,VWS V14.01,2013-07-24 19:27:00,
2013-07-24 13:29:00,85.3,10.8,30.00,NNE,13,4.0,6.3,6,0.00,,---,0.00,VWS V14.01,2013-07-24 19:29:00,
2013-07-24 13:32:00,85.6,11.1,30.00,NNE,23,5.4,5.4,6,0.00,,---,0.00,VWS V14.01,2013-07-24 19:32:00,
2013-07-24 13:34:00,85.8,11.2,30.00,North,2,4.0,7.2,6,0.00,,---,0.00,VWS V14.01,2013-07-24 19:34:00,
2013-07-24 13:35:00,85.8,11.2,30.00,NNW,345,3.6,7.2,6,0.00,,---,0.00,VWS V14.01,2013-07-24 19:35:00,
2013-07-24 13:38:00,85.8,11.2,30.00,North,0,3.6,7.2,6,0.00,,---,0.00,VWS V14.01,2013-07-24 19:38:00,
2013-07-24 13:39:00,86.0,11.4,30.00,North,6,4.0,7.2,6,0.00,,---,0.00,VWS V14.01,2013-07-24 19:39:00,
2013-07-24 13:40:00,86.0,11.4,30.00,WNW,302,3.1,7.2,6,0.00,,---,0.00,VWS V14.01,2013-07-24 19:40:00,
2013-07-24 13:43:00,86.4,11.6,30.00,North,9,2.7,7.2,6,0.00,,---,0.00,VWS V14.01,2013-07-24 19:43:00,
2013-07-24 13:44:00,86.2,11.5,30.00,NE,41,2.2,7.2,6,0.00,,---,0.00,VWS V14.01,2013-07-24 19:44:00,
2013-07-24 13:45:00,86.2,11.5,30.00,NNE,21,3.1,7.2,6,0.00,,---,0.00,VWS V14.01,2013-07-24 19:45:00,
2013-07-24 13:46:00,86.0,11.4,30.00,ESE,111,4.9,5.4,6,0.00,,---,0.00,VWS V14.01,2013-07-24 19:46:00,
2013-07-24 13:48:00,86.2,11.5,30.00,NNE,16,5.4,6.3,6,0.00,,---,0.00,VWS V14.01,2013-07-24 19:48:00,
2013-07-24 13:50:00,86.0,11.4,30.00,North,3,4.0,6.3,6,0.00,,---,0.00,VWS V14.01,2013-07-24 19:50:00,
2013-07-24 13:51:00,86.0,11.4,30.00,East,81,2.7,6.7,6,0.00,,---,0.00,VWS V14.01,2013-07-24 19:51:00,
2013-07-24 13:52:00,86.0,11.4,30.00,North,6,3.6,6.7,6,0.00,,---,0.00,VWS V14.01,2013-07-24 19:52:00,
2013-07-24 13:53:00,86.2,11.5,30.00,NNE,12,5.4,6.7,6,0.00,,---,0.00,VWS V14.01,2013-07-24 19:53:00,
2013-07-24 13:55:00,86.4,11.6,30.00,North,5,2.7,6.7,6,0.00,,---,0.00,VWS V14.01,2013-07-24 19:55:00,
2013-07-24 13:56:00,86.4,11.6,30.00,North,0,4.9,6.7,6,0.00,,---,0.00,VWS V14.01,2013-07-24 19:56:00,
2013-07-24 13:57:00,86.7,11.9,30.00,NE,38,2.2,6.7,6,0.00,,---,0.00,VWS V14.01,2013-07-24 19:57:00,
2013-07-24 13:58:00,86.9,12.0,30.00,NNE,17,4.0,6.7,6,0.00,,---,0.00,VWS V14.01,2013-07-24 19:58:00,
2013-07-24 14:00:00,86.9,12.0,30.00,NNE,15,4.9,6.7,6,0.00,,---,0.00,VWS V14.01,2013-07-24 20:00:00,
2013-07-24 14:01:00,87.1,12.1,30.00,NE,49,2.7,4.9,6,0.00,,---,0.00,VWS V14.01,2013-07-24 20:01:00,
2013-07-24 14:02:00,87.1,12.1,30.00,ESE,117,4.0,4.9,6,0.00,,---,0.00,VWS V14.01,2013-07-24 20:02:00,
2013-07-24 14:04:00,87.1,12.1,30.00,ESE,122,5.8,5.8,6,0.00,,---,0.00,VWS V14.01,2013-07-24 20:04:00,
2013-07-24 14:05:00,87.1,12.1,30.00,North,10,4.0,5.8,6,0.00,,---,0.00,VWS V14.01,2013-07-24 20:05:00,
2013-07-24 14:07:00,87.1,12.1,30.00,North,353,4.9,6.3,6,0.00,,---,0.00,VWS V14.01,2013-07-24 20:07:00,
2013-07-24 14:08:00,87.1,12.1,30.00,North,6,7.6,7.6,6,0.00,,---,0.00,VWS V14.01,2013-07-24 20:08:00,
2013-07-24 14:09:00,87.1,12.1,30.00,North,3,6.3,7.6,6,0.00,,---,0.00,VWS V14.01,2013-07-24 20:09:00,
2013-07-24 14:10:00,87.1,12.1,30.00,NNE,14,4.0,7.6,6,0.00,,---,0.00,VWS V14.01,2013-07-24 20:10:00,
2013-07-24 14:11:00,86.9,12.0,30.00,NNE,15,3.1,7.6,6,0.00,,---,0.00,VWS V14.01,2013-07-24 20:11:00,
2013-07-24 14:12:00,86.7,11.9,30.00,North,353,4.0,7.6,6,0.00,,---,0.00,VWS V14.01,2013-07-24 20:12:00,
2013-07-24 14:13:00,86.7,11.9,30.00,NNW,343,2.2,7.6,6,0.00,,---,0.00,VWS V14.01,2013-07-24 20:13:00,
2013-07-24 14:14:00,86.5,11.7,30.00,NNW,346,2.7,7.6,6,0.00,,---,0.00,VWS V14.01,2013-07-24 20:14:00,
2013-07-24 14:16:00,86.4,11.6,30.00,NE,54,2.7,4.0,6,0.00,,---,0.00,VWS V14.01,2013-07-24 20:16:00,
2013-07-24 14:17:00,86.4,11.6,30.00,NE,43,0.0,4.0,6,0.00,,---,0.00,VWS V14.01,2013-07-24 20:17:00,
2013-07-24 14:18:00,86.5,11.7,30.00,ESE,105,3.1,4.0,6,0.00,,---,0.00,VWS V14.01,2013-07-24 20:18:00,
2013-07-24 14:19:00,86.7,11.9,30.00,SE,126,2.7,4.0,6,0.00,,---,0.00,VWS V14.01,2013-07-24 20:19:00,
2013-07-24 14:21:00,86.7,11.9,30.00,SSE,148,3.6,4.0,6,0.00,,---,0.00,VWS V14.01,2013-07-24 20:21:00,
2013-07-24 14:22:00,86.9,12.0,30.00,SSE,148,0.0,4.0,6,0.00,,---,0.00,VWS V14.01,2013-07-24 20:22:00,
2013-07-24 14:24:00,87.1,12.1,30.00,NNE,29,6.3,6.3,6,0.00,,---,0.00,VWS V14.01,2013-07-24 20:24:00,
2013-07-24 14:25:00,87.1,12.1,30.00,NNE,17,5.8,6.3,6,0.00,,---,0.00,VWS V14.01,2013-07-24 20:25:00,
2013-07-24 14:26:00,87.1,12.1,30.00,North,4,4.0,6.3,6,0.00,,---,0.00,VWS V14.01,2013-07-24 20:26:00,
2013-07-24 14:27:00,87.1,12.1,30.00,North,357,4.9,6.3,6,0.00,,---,0.00,VWS V14.01,2013-07-24 20:27:00,
2013-07-24 14:28:00,87.1,12.1,30.00,NNE,16,4.9,6.3,6,0.00,,---,0.00,VWS V14.01,2013-07-24 20:28:00,
2013-07-24 14:29:00,87.1,12.1,30.00,NNE,12,6.3,6.3,6,0.00,,---,0.00,VWS V14.01,2013-07-24 20:29:00,
2013-07-24 14:30:00,87.1,12.1,30.00,NNE,13,3.6,6.3,6,0.00,,---,0.00,VWS V14.01,2013-07-24 20:30:00,
2013-07-24 14:31:00,87.1,12.1,30.00,ENE,72,4.0,5.4,6,0.00,,---,0.00,VWS V14.01,2013-07-24 20:31:00,
2013-07-24 14:32:00,87.1,12.1,30.00,NNE,12,5.4,5.4,6,0.00,,---,0.00,VWS V14.01,2013-07-24 20:32:00,
2013-07-24 14:33:00,87.1,12.1,30.00,North,357,4.0,5.4,6,0.00,,---,0.00,VWS V14.01,2013-07-24 20:33:00,
2013-07-24 14:34:00,86.9,12.0,30.00,North,7,5.8,7.6,6,0.00,,---,0.00,VWS V14.01,2013-07-24 20:34:00,
2013-07-24 14:36:00,86.7,11.9,30.00,SE,133,2.7,7.6,6,0.00,,---,0.00,VWS V14.01,2013-07-24 20:36:00,
2013-07-24 14:37:00,86.5,11.7,30.00,WNW,282,2.2,7.6,6,0.00,,---,0.00,VWS V14.01,2013-07-24 20:37:00,
2013-07-24 14:38:00,86.5,11.7,30.00,WNW,287,2.7,7.6,6,0.00,,---,0.00,VWS V14.01,2013-07-24 20:38:00,
2013-07-24 14:39:00,86.5,11.7,30.00,East,94,4.9,7.6,6,0.00,,---,0.00,VWS V14.01,2013-07-24 20:39:00,
2013-07-24 14:41:00,86.7,11.9,30.00,East,101,3.1,7.6,6,0.00,,---,0.00,VWS V14.01,2013-07-24 20:41:00,
2013-07-24 14:42:00,86.7,11.9,30.00,East,98,0.0,7.6,6,0.00,,---,0.00,VWS V14.01,2013-07-24 20:42:00,
2013-07-24 14:43:00,86.9,12.0,30.00,North,357,2.7,7.6,6,0.00,,---,0.00,VWS V14.01,2013-07-24 20:43:00,
2013-07-24 14:45:00,87.1,12.1,30.00,NNE,20,5.4,7.6,6,0.00,,---,0.00,VWS V14.01,2013-07-24 20:45:00,
2013-07-24 14:46:00,87.1,12.1,30.00,NE,47,2.7,4.0,6,0.00,,---,0.00,VWS V14.01,2013-07-24 20:46:00,
2013-07-24 14:47:00,87.1,12.1,30.00,North,353,4.5,4.9,6,0.00,,---,0.00,VWS V14.01,2013-07-24 20:47:00,
2013-07-24 14:48:00,87.1,12.1,30.00,North,357,4.0,5.4,6,0.00,,---,0.00,VWS V14.01,2013-07-24 20:48:00,
2013-07-24 14:49:00,87.1,12.1,30.00,North,357,0.0,5.4,6,0.00,,---,0.00,VWS V14.01,2013-07-24 20:49:00,
2013-07-24 14:50:00,86.9,12.0,30.00,NNE,12,0.0,5.4,6,0.00,,---,0.00,VWS V14.01,2013-07-24 20:50:00,
2013-07-24 14:51:00,86.9,12.0,30.00,NNE,12,5.4,5.4,6,0.00,,---,0.00,VWS V14.01,2013-07-24 20:51:00,
2013-07-24 14:53:00,87.1,12.1,30.00,East,99,4.0,5.4,6,0.00,,---,0.00,VWS V14.01,2013-07-24 20:53:00,
2013-07-24 14:54:00,87.1,12.1,30.00,East,100,4.5,5.4,6,0.00,,---,0.00,VWS V14.01,2013-07-24 20:54:00,
2013-07-24 14:55:00,87.3,12.2,30.00,SE,130,4.0,5.4,6,0.00,,---,0.00,VWS V14.01,2013-07-24 20:55:00,
2013-07-24 14:57:00,87.4,12.4,30.00,SSE,161,2.7,5.4,6,0.00,,---,0.00,VWS V14.01,2013-07-24 20:57:00,
2013-07-24 14:58:00,87.6,12.5,30.00,NW,315,4.0,5.4,6,0.00,,---,0.00,VWS V14.01,2013-07-24 20:58:00,
2013-07-24 14:59:00,87.6,12.5,30.00,ENE,58,0.0,5.4,6,0.00,,---,0.00,VWS V14.01,2013-07-24 20:59:00,
2013-07-24 15:00:00,87.8,8.6,30.00,NNE,32,5.4,5.4,5,0.00,,---,0.00,VWS V14.01,2013-07-24 21:00:00,
2013-07-24 15:03:00,88.2,8.8,30.00,NNE,33,3.1,8.3,5,0.00,,---,0.00,VWS V14.01,2013-07-24 21:03:00,
2013-07-24 15:04:00,88.2,8.8,30.00,NNE,22,3.1,8.3,5,0.00,,---,0.00,VWS V14.01,2013-07-24 21:04:00,
2013-07-24 15:05:00,88.3,8.9,30.00,NE,38,2.7,8.3,5,0.00,,---,0.00,VWS V14.01,2013-07-24 21:05:00,
2013-07-24 15:08:00,88.9,9.3,30.00,North,353,6.3,8.3,5,0.00,,---,0.00,VWS V14.01,2013-07-24 21:08:00,
2013-07-24 15:09:00,88.9,9.3,30.00,North,10,4.0,8.3,5,0.00,,---,0.00,VWS V14.01,2013-07-24 21:09:00,
2013-07-24 15:10:00,88.9,9.3,30.00,NNE,15,3.6,8.3,5,0.00,,---,0.00,VWS V14.01,2013-07-24 21:10:00,
2013-07-24 15:13:00,88.7,9.2,30.00,North,353,4.9,8.3,5,0.00,,---,0.00,VWS V14.01,2013-07-24 21:13:00,
2013-07-24 15:14:00,88.7,9.2,30.00,NNW,330,4.0,8.3,5,0.00,,---,0.00,VWS V14.01,2013-07-24 21:14:00,
2013-07-24 15:15:00,88.5,9.1,30.00,North,353,2.7,8.3,5,0.00,,---,0.00,VWS V14.01,2013-07-24 21:15:00,
2013-07-24 15:19:00,89.2,9.6,30.00,WNW,300,3.1,5.8,5,0.00,,---,0.00,VWS V14.01,2013-07-24 21:19:00,
2013-07-24 15:20:00,89.4,9.7,30.00,North,0,2.7,5.8,5,0.00,,---,0.00,VWS V14.01,2013-07-24 21:20:00,
2013-07-24 15:21:00,89.4,9.7,30.00,WNW,295,3.6,5.8,5,0.00,,---,0.00,VWS V14.01,2013-07-24 21:21:00,
2013-07-24 15:25:00,88.9,9.3,30.00,East,99,3.1,5.8,5,0.00,,---,0.00,VWS V14.01,2013-07-24 21:25:00,
2013-07-24 15:26:00,88.7,9.2,30.00,East,97,4.5,5.8,5,0.00,,---,0.00,VWS V14.01,2013-07-24 21:26:00,
2013-07-24 15:27:00,88.7,9.2,30.00,East,99,0.0,7.6,5,0.00,,---,0.00,VWS V14.01,2013-07-24 21:27:00,
2013-07-24 15:30:00,88.3,8.9,30.00,North,2,2.2,7.6,5,0.00,,---,0.00,VWS V14.01,2013-07-24 21:30:00,
2013-07-24 15:31:00,88.2,8.8,30.00,North,2,2.7,2.7,5,0.00,,---,0.00,VWS V14.01,2013-07-24 21:31:00,
2013-07-24 15:32:00,88.3,8.9,30.00,North,0,3.6,4.0,5,0.00,,---,0.00,VWS V14.01,2013-07-24 21:32:00,
2013-07-24 15:35:00,88.3,8.9,30.00,NNE,16,2.7,6.3,5,0.00,,---,0.00,VWS V14.01,2013-07-24 21:35:00,
2013-07-24 15:36:00,88.3,8.9,30.00,NNE,14,4.0,6.3,5,0.00,,---,0.00,VWS V14.01,2013-07-24 21:36:00,
2013-07-24 15:37:00,88.3,8.9,30.00,North,357,4.0,6.3,5,0.00,,---,0.00,VWS V14.01,2013-07-24 21:37:00,
2013-07-24 15:40:00,88.5,9.1,30.00,WNW,291,0.0,6.3,5,0.00,,---,0.00,VWS V14.01,2013-07-24 21:40:00,
2013-07-24 15:41:00,88.5,9.1,30.00,North,350,4.0,6.3,5,0.00,,---,0.00,VWS V14.01,2013-07-24 21:41:00,
2013-07-24 15:42:00,88.5,9.1,30.00,NNW,334,3.1,6.3,5,0.00,,---,0.00,VWS V14.01,2013-07-24 21:42:00,
2013-07-24 15:46:00,88.9,9.3,30.00,NNE,24,5.4,5.4,5,0.00,,---,0.00,VWS V14.01,2013-07-24 21:46:00,
2013-07-24 15:47:00,88.9,9.3,30.00,NNE,28,4.0,6.7,5,0.00,,---,0.00,VWS V14.01,2013-07-24 21:47:00,
2013-07-24 15:51:00,89.1,9.4,30.00,North,4,5.8,8.3,5,0.00,,---,0.00,VWS V14.01,2013-07-24 21:51:00,
2013-07-24 15:52:00,89.1,9.4,30.00,NNE,32,4.0,8.3,5,0.00,,---,0.00,VWS V14.01,2013-07-24 21:52:00,
2013-07-24 15:53:00,89.1,9.4,30.00,NE,37,5.4,8.3,5,0.00,,---,0.00,VWS V14.01,2013-07-24 21:53:00,
2013-07-24 15:54:00,89.1,9.4,30.00,NNE,27,3.1,8.3,5,0.00,,---,0.00,VWS V14.01,2013-07-24 21:54:00,
2013-07-24 15:56:00,89.1,9.4,30.00,North,0,2.2,8.3,5,0.00,,---,0.00,VWS V14.01,2013-07-24 21:56:00,
2013-07-24 15:57:00,89.1,9.4,30.00,NW,326,2.2,8.3,5,0.00,,---,0.00,VWS V14.01,2013-07-24 21:57:00,
2013-07-24 15:58:00,89.1,9.4,30.00,West,263,0.0,8.3,5,0.00,,---,0.00,VWS V14.01,2013-07-24 21:58:00,
2013-07-24 15:59:00,89.2,9.6,30.00,South,182,4.5,8.3,5,0.00,,---,0.00,VWS V14.01,2013-07-24 21:59:00,
2013-07-24 16:01:00,89.4,9.7,30.00,SSW,202,6.3,6.3,5,0.00,,---,0.00,VWS V14.01,2013-07-24 22:01:00,
2013-07-24 16:02:00,89.4,9.7,30.00,South,189,7.6,7.6,5,0.00,,---,0.00,VWS V14.01,2013-07-24 22:02:00,
2013-07-24 16:03:00,89.6,9.8,30.00,SSW,200,2.7,7.6,5,0.00,,---,0.00,VWS V14.01,2013-07-24 22:03:00,
2013-07-24 16:04:00,89.6,9.8,30.00,South,191,3.1,7.6,5,0.00,,---,0.00,VWS V14.01,2013-07-24 22:04:00,
2013-07-24 16:06:00,89.6,9.8,30.00,SSW,193,4.0,7.6,5,0.00,,---,0.00,VWS V14.01,2013-07-24 22:06:00,
2013-07-24 16:07:00,89.6,9.8,30.00,South,180,7.6,7.6,5,0.00,,---,0.00,VWS V14.01,2013-07-24 22:07:00,
2013-07-24 16:08:00,89.6,9.8,30.00,SSE,152,5.8,7.6,5,0.00,,---,0.00,VWS V14.01,2013-07-24 22:08:00,
2013-07-24 16:09:00,89.6,9.8,30.00,South,173,3.1,7.6,5,0.00,,---,0.00,VWS V14.01,2013-07-24 22:09:00,
2013-07-24 16:11:00,89.8,9.9,30.00,ENE,77,2.2,7.6,5,0.00,,---,0.00,VWS V14.01,2013-07-24 22:11:00,
2013-07-24 16:12:00,89.6,9.8,30.00,East,80,2.2,7.6,5,0.00,,---,0.00,VWS V14.01,2013-07-24 22:12:00,
2013-07-24 16:13:00,89.4,9.7,30.00,East,80,2.2,7.6,5,0.00,,---,0.00,VWS V14.01,2013-07-24 22:13:00,
2013-07-24 16:14:00,89.4,9.7,30.00,NNE,32,2.7,7.6,5,0.00,,---,0.00,VWS V14.01,2013-07-24 22:14:00,
2013-07-24 16:15:00,89.4,9.7,30.00,ESE,115,4.9,5.4,5,0.00,,---,0.00,VWS V14.01,2013-07-24 22:15:00,
2013-07-24 16:16:00,89.4,9.7,30.00,East,79,3.1,5.4,5,0.00,,---,0.00,VWS V14.01,2013-07-24 22:16:00,
2013-07-24 16:18:00,89.6,9.8,30.00,NE,37,3.1,5.4,5,0.00,,---,0.00,VWS V14.01,2013-07-24 22:18:00,
2013-07-24 16:19:00,89.6,9.8,30.00,NNE,15,4.0,5.4,5,0.00,,---,0.00,VWS V14.01,2013-07-24 22:19:00,
2013-07-24 16:20:00,89.8,9.9,30.00,NE,34,4.0,5.4,5,0.00,,---,0.00,VWS V14.01,2013-07-24 22:20:00,
2013-07-24 16:21:00,89.8,9.9,30.00,North,4,8.1,8.1,5,0.00,,---,0.00,VWS V14.01,2013-07-24 22:21:00,
2013-07-24 16:23:00,90.0,10.1,30.00,NW,310,2.7,8.1,5,0.00,,---,0.00,VWS V14.01,2013-07-24 22:23:00,
2013-07-24 16:25:00,90.5,10.4,30.00,North,350,3.6,8.1,5,0.00,,---,0.00,VWS V14.01,2013-07-24 22:25:00,
2013-07-24 16:26:00,90.7,10.6,30.00,North,7,6.3,8.7,5,0.00,,---,0.00,VWS V14.01,2013-07-24 22:26:00,
2013-07-24 16:27:00,90.9,10.7,30.00,North,0,4.0,8.7,5,0.00,,---,0.00,VWS V14.01,2013-07-24 22:27:00,
2013-07-24 16:28:00,90.9,10.7,30.00,NNW,332,2.2,8.7,5,0.00,,---,0.00,VWS V14.01,2013-07-24 22:28:00,
2013-07-24 16:30:00,91.2,10.9,30.00,NNW,330,2.2,8.7,5,0.00,,---,0.00,VWS V14.01,2013-07-24 22:30:00,
2013-07-24 16:32:00,91.8,6.4,30.00,NNE,24,4.0,4.0,4,0.00,,---,0.00,VWS V14.01,2013-07-24 22:32:00,
2013-07-24 16:33:00,91.9,6.5,30.00,WNW,302,2.2,4.0,4,0.00,,---,0.00,VWS V14.01,2013-07-24 22:33:00,
2013-07-24 16:35:00,92.3,6.8,30.00,NNW,340,6.3,8.1,4,0.00,,---,0.00,VWS V14.01,2013-07-24 22:35:00,
2013-07-24 16:37:00,92.1,6.6,30.00,North,0,2.7,8.1,4,0.00,,---,0.00,VWS V14.01,2013-07-24 22:37:00,
2013-07-24 16:38:00,92.1,6.6,30.00,NNW,340,4.0,8.1,4,0.00,,---,0.00,VWS V14.01,2013-07-24 22:38:00,
2013-07-24 16:40:00,92.1,6.6,30.00,NNW,343,6.3,8.1,4,0.00,,---,0.00,VWS V14.01,2013-07-24 22:40:00,
2013-07-24 16:42:00,91.8,6.4,30.00,WNW,300,6.3,10.5,4,0.00,,---,0.00,VWS V14.01,2013-07-24 22:42:00,
2013-07-24 16:43:00,91.6,6.3,30.00,NNW,337,5.8,10.5,4,0.00,,---,0.00,VWS V14.01,2013-07-24 22:43:00,
2013-07-24 16:44:00,91.6,6.3,30.00,North,353,4.0,10.5,4,0.00,,---,0.00,VWS V14.01,2013-07-24 22:44:00,
2013-07-24 16:45:00,91.6,6.3,30.00,NNW,340,3.6,5.4,4,0.00,,---,0.00,VWS V14.01,2013-07-24 22:45:00,
2013-07-24 16:47:00,91.8,6.4,30.00,North,4,7.6,7.6,4,0.00,,---,0.00,VWS V14.01,2013-07-24 22:47:00,
2013-07-24 16:48:00,91.6,6.3,30.00,North,6,5.8,7.6,4,0.00,,---,0.00,VWS V14.01,2013-07-24 22:48:00,
2013-07-24 16:49:00,91.4,6.1,30.00,North,5,5.8,8.3,4,0.00,,---,0.00,VWS V14.01,2013-07-24 22:49:00,
2013-07-24 16:50:00,91.4,6.1,30.00,North,357,5.8,10.5,4,0.00,,---,0.00,VWS V14.01,2013-07-24 22:50:00,
2013-07-24 16:52:00,91.2,10.9,30.00,NNW,339,5.4,10.5,5,0.00,,---,0.00,VWS V14.01,2013-07-24 22:52:00,
2013-07-24 16:53:00,91.2,10.9,30.00,North,357,7.6,10.5,5,0.00,,---,0.00,VWS V14.01,2013-07-24 22:53:00,
2013-07-24 16:54:00,91.2,10.9,30.00,NNE,13,5.4,10.5,5,0.00,,---,0.00,VWS V14.01,2013-07-24 22:54:00,
2013-07-24 16:55:00,91.2,10.9,30.00,NW,324,4.0,10.5,5,0.00,,---,0.00,VWS V14.01,2013-07-24 22:55:00,
2013-07-24 16:57:00,91.2,10.9,30.00,SW,221,4.0,10.5,5,0.00,,---,0.00,VWS V14.01,2013-07-24 22:57:00,
2013-07-24 16:58:00,91.4,6.1,30.00,WNW,297,2.7,10.5,4,0.00,,---,0.00,VWS V14.01,2013-07-24 22:58:00,
2013-07-24 16:59:00,91.6,6.3,30.00,WNW,296,6.3,10.5,4,0.00,,---,0.00,VWS V14.01,2013-07-24 22:59:00,
2013-07-24 17:00:00,91.9,6.5,30.00,West,270,4.9,7.2,4,0.00,,---,0.00,VWS V14.01,2013-07-24 23:00:00,
2013-07-24 17:02:00,92.3,6.8,30.00,NNW,327,3.6,7.2,4,0.00,,---,0.00,VWS V14.01,2013-07-24 23:02:00,
2013-07-24 17:03:00,92.3,6.8,30.00,North,357,3.1,7.2,4,0.00,,---,0.00,VWS V14.01,2013-07-24 23:03:00,
2013-07-24 17:04:00,92.3,6.8,30.00,North,353,6.3,7.2,4,0.00,,---,0.00,VWS V14.01,2013-07-24 23:04:00,
2013-07-24 17:06:00,92.3,6.8,30.00,North,0,5.4,7.2,4,0.00,,---,0.00,VWS V14.01,2013-07-24 23:06:00,
2013-07-24 17:07:00,92.1,6.6,30.00,NNW,346,2.7,8.1,4,0.00,,---,0.00,VWS V14.01,2013-07-24 23:07:00,
2013-07-24 17:08:00,91.9,6.5,30.00,NW,305,3.6,8.1,4,0.00,,---,0.00,VWS V14.01,2013-07-24 23:08:00,
2013-07-24 17:09:00,92.1,6.6,30.00,NNW,328,5.4,8.1,4,0.00,,---,0.00,VWS V14.01,2013-07-24 23:09:00,
2013-07-24 17:11:00,92.3,6.8,30.00,North,357,5.8,8.1,4,0.00,,---,0.00,VWS V14.01,2013-07-24 23:11:00,
2013-07-24 17:13:00,92.3,6.8,30.00,WNW,294,3.6,8.1,4,0.00,,---,0.00,VWS V14.01,2013-07-24 23:13:00,
2013-07-24 17:14:00,92.3,6.8,30.00,NW,320,2.7,8.1,4,0.00,,---,0.00,VWS V14.01,2013-07-24 23:14:00,
2013-07-24 17:16:00,92.3,6.8,30.00,West,262,3.6,4.0,4,0.00,,---,0.00,VWS V14.01,2013-07-24 23:16:00,
2013-07-24 17:18:00,92.5,6.9,30.00,WNW,299,2.7,4.0,4,0.00,,---,0.00,VWS V14.01,2013-07-24 23:18:00,
2013-07-24 17:19:00,92.8,7.1,30.00,NNW,331,3.1,4.9,4,0.00,,---,0.00,VWS V14.01,2013-07-24 23:19:00,
2013-07-24 17:20:00,92.8,7.1,30.00,NNW,335,4.0,4.9,4,0.00,,---,0.00,VWS V14.01,2013-07-24 23:20:00,
2013-07-24 17:22:00,92.8,7.1,30.00,North,357,5.4,7.2,4,0.00,,---,0.00,VWS V14.01,2013-07-24 23:22:00,
2013-07-24 17:23:00,92.7,7.0,30.00,North,357,5.4,7.2,4,0.00,,---,0.00,VWS V14.01,2013-07-24 23:23:00,
2013-07-24 17:25:00,92.5,6.9,30.00,NW,325,4.9,7.2,4,0.00,,---,0.00,VWS V14.01,2013-07-24 23:25:00,
2013-07-24 17:27:00,92.3,6.8,30.00,NNW,345,4.9,7.2,4,0.00,,---,0.00,VWS V14.01,2013-07-24 23:27:00,
2013-07-24 17:28:00,92.3,6.8,30.00,West,261,2.2,7.2,4,0.00,,---,0.00,VWS V14.01,2013-07-24 23:28:00,
2013-07-24 17:30:00,92.3,6.8,30.00,WNW,298,3.6,3.6,4,0.00,,---,0.00,VWS V14.01,2013-07-24 23:30:00,
2013-07-24 17:33:00,92.7,7.0,30.00,NW,304,2.7,4.0,4,0.00,,---,0.00,VWS V14.01,2013-07-24 23:33:00,
2013-07-24 17:35:00,93.0,7.2,30.00,North,0,3.6,5.4,4,0.00,,---,0.00,VWS V14.01,2013-07-24 23:35:00,
2013-07-24 17:38:00,93.0,7.2,30.00,NNW,343,3.6,6.7,4,0.00,,---,0.00,VWS V14.01,2013-07-24 23:38:00,
2013-07-24 17:39:00,93.0,7.2,30.00,NW,319,3.6,6.7,4,0.00,,---,0.00,VWS V14.01,2013-07-24 23:39:00,
2013-07-24 17:40:00,92.8,7.1,30.00,NW,324,5.4,6.7,4,0.00,,---,0.00,VWS V14.01,2013-07-24 23:40:00,
2013-07-24 17:42:00,92.8,7.1,30.00,NW,316,6.3,6.7,4,0.00,,---,0.00,VWS V14.01,2013-07-24 23:42:00,
2013-07-24 17:43:00,92.7,7.0,30.00,North,7,8.3,8.3,4,0.00,,---,0.00,VWS V14.01,2013-07-24 23:43:00,
2013-07-24 17:44:00,92.7,7.0,30.00,North,8,8.7,8.7,4,0.00,,---,0.00,VWS V14.01,2013-07-24 23:44:00,
2013-07-24 17:46:00,92.3,6.8,30.00,NNW,346,6.3,6.3,4,0.00,,---,0.00,VWS V14.01,2013-07-24 23:46:00,
2013-07-24 17:47:00,92.1,6.6,30.00,North,353,4.0,6.3,4,0.00,,---,0.00,VWS V14.01,2013-07-24 23:47:00,
2013-07-24 17:52:00,91.6,6.3,30.00,North,357,3.6,4.9,4,0.00,,---,0.00,VWS V14.01,2013-07-24 23:52:00,
2013-07-24 17:53:00,91.6,6.3,30.00,North,10,8.1,8.1,4,0.00,,---,0.00,VWS V14.01,2013-07-24 23:53:00,
2013-07-24 17:57:00,91.0,10.8,30.00,North,0,6.3,8.7,5,0.00,,---,0.00,VWS V14.01,2013-07-24 23:57:00,
2013-07-24 17:58:00,91.0,10.8,30.00,NNW,346,6.3,8.7,5,0.00,,---,0.00,VWS V14.01,2013-07-24 23:58:00,
2013-07-24 18:02:00,90.7,10.6,30.00,North,0,5.8,8.7,5,0.00,,---,0.00,VWS V14.01,2013-07-25 00:02:00,
2013-07-24 18:03:00,90.7,10.6,30.00,North,9,3.1,8.7,5,0.00,,---,0.00,VWS V14.01,2013-07-25 00:03:00,
2013-07-24 18:08:00,90.5,10.4,30.00,North,350,5.8,8.7,5,0.00,,---,0.00,VWS V14.01,2013-07-25 00:08:00,
2013-07-24 18:13:00,90.9,10.7,30.00,NNW,342,4.0,8.7,5,0.00,,---,0.00,VWS V14.01,2013-07-25 00:13:00,
2013-07-24 18:18:00,91.0,10.8,30.00,WNW,301,2.7,5.8,5,0.00,,---,0.00,VWS V14.01,2013-07-25 00:18:00,
2013-07-24 18:19:00,91.2,10.9,30.00,North,0,3.1,5.8,5,0.00,,---,0.00,VWS V14.01,2013-07-25 00:19:00,
2013-07-24 18:23:00,90.9,10.7,30.00,NW,320,4.0,8.1,5,0.00,,---,0.00,VWS V14.01,2013-07-25 00:23:00,
2013-07-24 18:24:00,90.9,10.7,30.00,NW,309,4.0,8.1,5,0.00,,---,0.00,VWS V14.01,2013-07-25 00:24:00,
2013-07-24 18:28:00,90.7,10.6,30.00,West,270,4.0,8.1,5,0.00,,---,0.00,VWS V14.01,2013-07-25 00:28:00,
2013-07-24 18:29:00,90.9,10.7,30.00,WSW,256,2.2,8.1,5,0.00,,---,0.00,VWS V14.01,2013-07-25 00:29:00,
2013-07-24 18:33:00,90.9,10.7,30.00,North,353,0.0,4.0,5,0.00,,---,0.00,VWS V14.01,2013-07-25 00:33:00,
2013-07-24 18:34:00,90.9,10.7,30.00,North,0,2.7,4.0,5,0.00,,---,0.00,VWS V14.01,2013-07-25 00:34:00,
2013-07-24 18:38:00,90.1,10.2,30.00,North,357,3.6,7.6,5,0.00,,---,0.00,VWS V14.01,2013-07-25 00:38:00,
2013-07-24 18:39:00,90.1,10.2,30.00,North,357,3.6,7.6,5,0.00,,---,0.00,VWS V14.01,2013-07-25 00:39:00,
2013-07-24 18:43:00,89.8,9.9,30.00,NNW,343,5.4,7.6,5,0.00,,---,0.00,VWS V14.01,2013-07-25 00:43:00,
2013-07-24 18:44:00,89.8,9.9,30.00,North,11,3.1,7.6,5,0.00,,---,0.00,VWS V14.01,2013-07-25 00:44:00,
2013-07-24 18:45:00,89.8,9.9,30.00,NNW,328,2.7,3.6,5,0.00,,---,0.00,VWS V14.01,2013-07-25 00:45:00,
2013-07-24 18:49:00,89.8,9.9,30.00,North,350,3.6,6.3,5,0.00,,---,0.00,VWS V14.01,2013-07-25 00:49:00,
2013-07-24 18:50:00,89.8,9.9,30.00,North,350,0.0,6.3,5,0.00,,---,0.00,VWS V14.01,2013-07-25 00:50:00,
2013-07-24 18:54:00,90.3,10.3,30.00,North,8,4.0,6.3,5,0.00,,---,0.00,VWS V14.01,2013-07-25 00:54:00,
2013-07-24 18:55:00,90.1,10.2,30.00,North,0,5.8,6.3,5,0.00,,---,0.00,VWS V14.01,2013-07-25 00:55:00,
2013-07-24 18:56:00,90.1,10.2,30.00,North,0,5.4,6.3,5,0.00,,---,0.00,VWS V14.01,2013-07-25 00:56:00,
2013-07-24 18:59:00,89.2,9.6,30.00,North,5,5.4,6.3,5,0.00,,---,0.00,VWS V14.01,2013-07-25 00:59:00,
2013-07-24 19:00:00,89.2,9.6,30.00,NNW,345,6.3,6.3,5,0.00,,---,0.00,VWS V14.01,2013-07-25 01:00:00,
2013-07-24 19:02:00,88.7,9.2,30.00,North,6,3.6,8.1,5,0.00,,---,0.00,VWS V14.01,2013-07-25 01:02:00,
2013-07-24 19:05:00,88.5,9.1,30.00,North,357,5.8,8.1,5,0.00,,---,0.00,VWS V14.01,2013-07-25 01:05:00,
2013-07-24 19:06:00,88.3,8.9,30.00,NNW,329,2.7,8.1,5,0.00,,---,0.00,VWS V14.01,2013-07-25 01:06:00,
2013-07-24 19:07:00,88.2,8.8,30.00,NNW,336,2.7,8.1,5,0.00,,---,0.00,VWS V14.01,2013-07-25 01:07:00,
2013-07-24 19:10:00,88.0,8.7,30.00,North,357,2.2,8.1,5,0.00,,---,0.00,VWS V14.01,2013-07-25 01:10:00,
2013-07-24 19:11:00,88.0,8.7,30.00,North,357,3.1,8.1,5,0.00,,---,0.00,VWS V14.01,2013-07-25 01:11:00,
2013-07-24 19:13:00,88.0,8.7,30.00,North,0,6.7,8.1,5,0.00,,---,0.00,VWS V14.01,2013-07-25 01:13:00,
2013-07-24 19:15:00,87.6,12.5,30.00,NNW,332,3.6,4.9,6,0.00,,---,0.00,VWS V14.01,2013-07-25 01:15:00,
2013-07-24 19:17:00,87.6,12.5,30.00,North,0,3.6,4.9,6,0.00,,---,0.00,VWS V14.01,2013-07-25 01:17:00,
2013-07-24 19:18:00,87.6,12.5,30.00,NW,319,3.1,4.9,6,0.00,,---,0.00,VWS V14.01,2013-07-25 01:18:00,
2013-07-24 19:20:00,87.4,12.4,30.00,North,0,3.6,5.4,6,0.00,,---,0.00,VWS V14.01,2013-07-25 01:20:00,
2013-07-24 19:21:00,87.4,12.4,30.00,NNW,344,5.4,5.4,6,0.00,,---,0.00,VWS V14.01,2013-07-25 01:21:00,
2013-07-24 19:22:00,87.3,12.2,30.00,NW,324,3.1,5.4,6,0.00,,---,0.00,VWS V14.01,2013-07-25 01:22:00,
2013-07-24 19:23:00,87.3,12.2,30.00,North,10,5.4,5.4,6,0.00,,---,0.00,VWS V14.01,2013-07-25 01:23:00,
2013-07-24 19:25:00,87.1,12.1,30.00,North,353,5.8,6.3,6,0.00,,---,0.00,VWS V14.01,2013-07-25 01:25:00,
2013-07-24 19:26:00,87.1,12.1,30.00,North,0,4.9,6.3,6,0.00,,---,0.00,VWS V14.01,2013-07-25 01:26:00,
2013-07-24 19:27:00,86.9,12.0,30.00,NNW,329,2.7,6.3,6,0.00,,---,0.00,VWS V14.01,2013-07-25 01:27:00,
2013-07-24 19:29:00,86.9,12.0,30.00,North,349,5.4,6.3,6,0.00,,---,0.00,VWS V14.01,2013-07-25 01:29:00,
2013-07-24 19:30:00,86.7,11.9,30.00,North,9,4.9,5.8,6,0.00,,---,0.00,VWS V14.01,2013-07-25 01:30:00,
2013-07-24 19:31:00,86.7,11.9,30.00,North,10,4.0,5.8,6,0.00,,---,0.00,VWS V14.01,2013-07-25 01:31:00,
2013-07-24 19:32:00,86.5,11.7,30.00,North,357,5.4,5.8,6,0.00,,---,0.00,VWS V14.01,2013-07-25 01:32:00,
2013-07-24 19:33:00,86.5,11.7,30.00,North,1,3.6,5.8,6,0.00,,---,0.00,VWS V14.01,2013-07-25 01:33:00,
2013-07-24 19:34:00,86.5,11.7,30.00,NNE,22,3.1,5.8,6,0.00,,---,0.00,VWS V14.01,2013-07-25 01:34:00,
2013-07-24 19:35:00,86.4,11.6,30.00,NNE,20,6.3,6.3,6,0.00,,---,0.00,VWS V14.01,2013-07-25 01:35:00,
2013-07-24 19:36:00,86.4,11.6,30.00,North,353,2.7,6.3,6,0.00,,---,0.00,VWS V14.01,2013-07-25 01:36:00,
2013-07-24 19:37:00,86.4,11.6,30.00,North,353,4.0,6.3,6,0.00,,---,0.00,VWS V14.01,2013-07-25 01:37:00,
2013-07-24 19:38:00,86.4,11.6,30.00,North,353,2.7,6.3,6,0.00,,---,0.00,VWS V14.01,2013-07-25 01:38:00,
2013-07-24 19:39:00,86.2,11.5,30.00,North,3,5.8,6.3,6,0.00,,---,0.00,VWS V14.01,2013-07-25 01:39:00,
2013-07-24 19:41:00,86.2,11.5,30.00,North,353,5.4,6.3,6,0.00,,---,0.00,VWS V14.01,2013-07-25 01:41:00,
2013-07-24 19:42:00,86.2,11.5,30.00,North,349,2.2,6.3,6,0.00,,---,0.00,VWS V14.01,2013-07-25 01:42:00,
2013-07-24 19:43:00,86.2,11.5,30.00,NW,325,3.6,6.3,6,0.00,,---,0.00,VWS V14.01,2013-07-25 01:43:00,
2013-07-24 19:44:00,86.2,11.5,30.00,NNW,335,4.0,6.3,6,0.00,,---,0.00,VWS V14.01,2013-07-25 01:44:00,
2013-07-24 19:46:00,86.2,11.5,30.00,North,353,2.7,4.0,6,0.00,,---,0.00,VWS V14.01,2013-07-25 01:46:00,
2013-07-24 19:47:00,86.2,11.5,30.00,NNW,338,6.3,6.3,6,0.00,,---,0.00,VWS V14.01,2013-07-25 01:47:00,
2013-07-24 19:48:00,86.2,11.5,30.00,NNW,338,6.3,6.3,6,0.00,,---,0.00,VWS V14.01,2013-07-25 01:48:00,
2013-07-24 19:49:00,86.2,11.5,30.00,North,353,2.7,6.3,6,0.00,,---,0.00,VWS V14.01,2013-07-25 01:49:00,
2013-07-24 19:51:00,86.0,11.4,30.00,North,357,4.0,6.3,6,0.00,,---,0.00,VWS V14.01,2013-07-25 01:51:00,
2013-07-24 19:53:00,86.0,11.4,30.00,NNW,345,3.6,6.3,6,0.00,,---,0.00,VWS V14.01,2013-07-25 01:53:00,
2013-07-24 19:54:00,85.8,11.2,30.00,North,0,2.7,6.3,6,0.00,,---,0.00,VWS V14.01,2013-07-25 01:54:00,
2013-07-24 19:57:00,85.5,11.0,30.03,North,357,4.0,6.3,6,0.00,,---,0.00,VWS V14.01,2013-07-25 01:57:00,
2013-07-24 19:58:00,85.5,11.0,30.03,North,0,4.9,6.3,6,0.00,,---,0.00,VWS V14.01,2013-07-25 01:58:00,
2013-07-24 19:59:00,85.5,11.0,30.03,NNW,340,3.1,6.3,6,0.00,,---,0.00,VWS V14.01,2013-07-25 01:59:00,
2013-07-24 20:02:00,85.1,10.7,30.03,NNW,341,3.1,5.4,6,0.00,,---,0.00,VWS V14.01,2013-07-25 02:02:00,
2013-07-24 20:03:00,85.1,10.7,30.03,NNW,341,3.1,5.4,6,0.00,,---,0.00,VWS V14.01,2013-07-25 02:03:00,
2013-07-24 20:04:00,85.1,10.7,30.03,North,0,2.7,5.4,6,0.00,,---,0.00,VWS V14.01,2013-07-25 02:04:00,
2013-07-24 20:08:00,84.9,10.6,30.03,North,353,2.7,5.4,6,0.00,,---,0.00,VWS V14.01,2013-07-25 02:08:00,
2013-07-24 20:10:00,84.6,10.3,30.03,North,0,4.9,5.4,6,0.00,,---,0.00,VWS V14.01,2013-07-25 02:10:00,
2013-07-24 20:13:00,84.6,10.3,30.03,North,353,3.6,5.4,6,0.00,,---,0.00,VWS V14.01,2013-07-25 02:13:00,
2013-07-24 20:14:00,84.4,10.2,30.03,North,357,3.1,5.4,6,0.00,,---,0.00,VWS V14.01,2013-07-25 02:14:00,
2013-07-24 20:15:00,84.4,10.2,30.03,North,0,3.6,3.6,6,0.00,,---,0.00,VWS V14.01,2013-07-25 02:15:00,
2013-07-24 20:18:00,84.2,10.1,30.03,North,349,3.6,3.6,6,0.00,,---,0.00,VWS V14.01,2013-07-25 02:18:00,
2013-07-24 20:19:00,84.2,10.1,30.03,NW,319,2.7,3.6,6,0.00,,---,0.00,VWS V14.01,2013-07-25 02:19:00,
2013-07-24 20:20:00,84.2,10.1,30.03,North,353,3.6,3.6,6,0.00,,---,0.00,VWS V14.01,2013-07-25 02:20:00,
2013-07-24 20:23:00,83.8,9.8,30.03,NNW,346,2.7,4.0,6,0.00,,---,0.00,VWS V14.01,2013-07-25 02:23:00,
2013-07-24 20:24:00,83.7,9.7,30.03,NNW,346,2.7,4.0,6,0.00,,---,0.00,VWS V14.01,2013-07-25 02:24:00,
2013-07-24 20:25:00,83.7,9.7,30.03,North,2,3.1,4.0,6,0.00,,---,0.00,VWS V14.01,2013-07-25 02:25:00,
2013-07-24 20:29:00,83.5,9.5,30.03,North,353,2.2,5.4,6,0.00,,---,0.00,VWS V14.01,2013-07-25 02:29:00,
2013-07-24 20:30:00,83.3,9.4,30.03,North,353,0.0,0.0,6,0.00,,---,0.00,VWS V14.01,2013-07-25 02:30:00,
2013-07-24 20:34:00,82.9,9.1,30.03,North,353,0.0,0.0,6,0.00,,---,0.00,VWS V14.01,2013-07-25 02:34:00,
2013-07-24 20:36:00,82.6,8.9,30.03,North,0,2.7,4.0,6,0.00,,---,0.00,VWS V14.01,2013-07-25 02:36:00,
2013-07-24 20:39:00,82.4,8.8,30.03,NNW,348,3.6,6.3,6,0.00,,---,0.00,VWS V14.01,2013-07-25 02:39:00,
2013-07-24 20:40:00,82.4,8.8,30.03,North,3,3.6,6.3,6,0.00,,---,0.00,VWS V14.01,2013-07-25 02:40:00,
2013-07-24 20:41:00,82.4,8.8,30.03,North,357,2.7,6.3,6,0.00,,---,0.00,VWS V14.01,2013-07-25 02:41:00,
2013-07-24 20:44:00,82.2,12.1,30.03,North,357,3.1,6.3,7,0.00,,---,0.00,VWS V14.01,2013-07-25 02:44:00,
2013-07-24 20:45:00,82.0,11.9,30.03,NNE,18,3.1,6.3,7,0.00,,---,0.00,VWS V14.01,2013-07-25 02:45:00,
2013-07-24 20:46:00,82.0,11.9,30.03,North,357,2.7,3.1,7,0.00,,---,0.00,VWS V14.01,2013-07-25 02:46:00,
2013-07-24 20:49:00,81.5,11.6,30.03,NNW,335,2.2,4.0,7,0.00,,---,0.00,VWS V14.01,2013-07-25 02:49:00,
2013-07-24 20:50:00,81.5,11.6,30.03,NNW,335,0.0,4.0,7,0.00,,---,0.00,VWS V14.01,2013-07-25 02:50:00,
2013-07-24 20:51:00,81.1,11.3,30.03,North,353,4.0,4.0,7,0.00,,---,0.00,VWS V14.01,2013-07-25 02:51:00,
2013-07-24 20:55:00,80.8,11.0,30.03,North,0,5.8,5.8,7,0.00,,---,0.00,VWS V14.01,2013-07-25 02:55:00,
2013-07-24 20:56:00,80.6,10.9,30.03,North,0,4.0,6.3,7,0.00,,---,0.00,VWS V14.01,2013-07-25 02:56:00,
2013-07-24 21:00:00,80.2,10.6,30.06,North,2,3.1,6.3,7,0.00,,---,0.00,VWS V14.01,2013-07-25 03:00:00,
2013-07-24 21:01:00,80.1,10.5,30.06,North,9,3.6,3.6,7,0.00,,---,0.00,VWS V14.01,2013-07-25 03:01:00,
2013-07-24 21:05:00,79.5,10.1,30.06,NNW,331,3.1,6.3,7,0.00,,---,0.00,VWS V14.01,2013-07-25 03:05:00,
2013-07-24 21:07:00,79.3,10.0,30.06,NNW,348,5.4,6.3,7,0.00,,---,0.00,VWS V14.01,2013-07-25 03:07:00,
2013-07-24 21:08:00,79.2,9.8,30.06,North,353,3.1,6.3,7,0.00,,---,0.00,VWS V14.01,2013-07-25 03:08:00,
2013-07-24 21:12:00,78.8,9.6,30.06,NNW,328,2.7,6.3,7,0.00,,---,0.00,VWS V14.01,2013-07-25 03:12:00,
2013-07-24 21:13:00,78.6,12.4,30.06,NNW,328,0.0,6.3,8,0.00,,---,0.00,VWS V14.01,2013-07-25 03:13:00,
2013-07-24 21:17:00,78.3,12.2,30.06,North,10,3.6,4.0,8,0.00,,---,0.00,VWS V14.01,2013-07-25 03:17:00,
2013-07-24 21:18:00,78.3,12.2,30.06,North,3,4.0,4.0,8,0.00,,---,0.00,VWS V14.01,2013-07-25 03:18:00,
2013-07-24 21:19:00,78.3,12.2,30.06,North,357,2.7,4.0,8,0.00,,---,0.00,VWS V14.01,2013-07-25 03:19:00,
2013-07-24 21:22:00,77.9,11.9,30.06,North,357,3.6,4.0,8,0.00,,---,0.00,VWS V14.01,2013-07-25 03:22:00,
2013-07-24 21:23:00,77.7,11.8,30.06,North,8,3.1,4.0,8,0.00,,---,0.00,VWS V14.01,2013-07-25 03:23:00,
2013-07-24 21:24:00,77.7,11.8,30.06,North,8,2.7,4.0,8,0.00,,---,0.00,VWS V14.01,2013-07-25 03:24:00,
2013-07-24 21:27:00,77.5,11.6,30.06,North,357,0.0,4.0,8,0.00,,---,0.00,VWS V14.01,2013-07-25 03:27:00,
2013-07-24 21:29:00,77.4,11.5,30.06,North,357,0.0,4.0,8,0.00,,---,0.00,VWS V14.01,2013-07-25 03:29:00,
2013-07-24 21:33:00,76.6,11.0,30.06,North,357,0.0,3.1,8,0.00,,---,0.00,VWS V14.01,2013-07-25 03:33:00,
2013-07-24 21:34:00,76.5,10.8,30.06,North,357,0.0,3.1,8,0.00,,---,0.00,VWS V14.01,2013-07-25 03:34:00,
2013-07-24 21:35:00,76.5,10.8,30.06,North,357,0.0,3.1,8,0.00,,---,0.00,VWS V14.01,2013-07-25 03:35:00,
2013-07-24 21:37:00,76.1,10.6,30.06,North,357,0.0,3.1,8,0.00,,---,0.00,VWS V14.01,2013-07-25 03:37:00,
2013-07-24 21:38:00,75.9,10.4,30.06,North,357,0.0,3.1,8,0.00,,---,0.00,VWS V14.01,2013-07-25 03:38:00,
2013-07-24 21:40:00,75.6,10.2,30.06,North,357,0.0,3.1,8,0.00,,---,0.00,VWS V14.01,2013-07-25 03:40:00,
2013-07-24 21:43:00,75.2,9.9,30.06,North,357,0.0,3.1,8,0.00,,---,0.00,VWS V14.01,2013-07-25 03:43:00,
2013-07-24 21:44:00,74.8,9.6,30.06,North,357,0.0,3.1,8,0.00,,---,0.00,VWS V14.01,2013-07-25 03:44:00,
2013-07-24 21:45:00,74.7,9.5,30.06,North,350,3.1,3.1,8,0.00,,---,0.00,VWS V14.01,2013-07-25 03:45:00,
2013-07-24 21:46:00,74.7,9.5,30.06,North,350,2.7,3.1,8,0.00,,---,0.00,VWS V14.01,2013-07-25 03:46:00,
2013-07-24 21:49:00,74.3,9.2,30.06,WNW,292,0.0,3.1,8,0.00,,---,0.00,VWS V14.01,2013-07-25 03:49:00,
2013-07-24 21:52:00,74.1,9.1,30.06,WNW,292,0.0,3.1,8,0.00,,---,0.00,VWS V14.01,2013-07-25 03:52:00,
2013-07-24 21:54:00,73.8,8.8,30.06,WNW,292,0.0,3.1,8,0.00,,---,0.00,VWS V14.01,2013-07-25 03:54:00,
2013-07-24 21:57:00,73.2,11.1,30.06,WNW,292,0.0,3.1,9,0.00,,---,0.00,VWS V14.01,2013-07-25 03:57:00,
2013-07-24 21:58:00,73.2,11.1,30.09,WNW,292,0.0,3.1,9,0.00,,---,0.00,VWS V14.01,2013-07-25 03:58:00,
2013-07-24 21:59:00,73.0,10.9,30.09,WNW,292,0.0,3.1,9,0.00,,---,0.00,VWS V14.01,2013-07-25 03:59:00,
2013-07-24 22:01:00,72.9,10.8,30.09,WNW,292,0.0,0.0,9,0.00,,---,0.00,VWS V14.01,2013-07-25 04:01:00,
2013-07-24 22:06:00,72.3,10.4,30.09,WNW,292,0.0,0.0,9,0.00,,---,0.00,VWS V14.01,2013-07-25 04:06:00,
2013-07-24 22:07:00,72.3,10.4,30.09,WNW,292,0.0,0.0,9,0.00,,---,0.00,VWS V14.01,2013-07-25 04:07:00,
2013-07-24 22:11:00,72.1,10.2,30.09,WNW,292,0.0,0.0,9,0.00,,---,0.00,VWS V14.01,2013-07-25 04:11:00,
2013-07-24 22:12:00,72.1,10.2,30.09,WNW,292,0.0,0.0,9,0.00,,---,0.00,VWS V14.01,2013-07-25 04:12:00,
2013-07-24 22:16:00,72.0,10.1,30.09,North,353,6.3,6.3,9,0.00,,---,0.00,VWS V14.01,2013-07-25 04:16:00,
2013-07-24 22:17:00,72.0,10.1,30.09,North,4,7.6,7.6,9,0.00,,---,0.00,VWS V14.01,2013-07-25 04:17:00,
2013-07-24 22:21:00,73.2,11.1,30.09,North,0,4.0,7.6,9,0.00,,---,0.00,VWS V14.01,2013-07-25 04:21:00,
2013-07-24 22:22:00,73.2,11.1,30.09,North,1,4.0,7.6,9,0.00,,---,0.00,VWS V14.01,2013-07-25 04:22:00,
2013-07-24 22:23:00,73.4,8.6,30.09,North,353,3.6,7.6,8,0.00,,---,0.00,VWS V14.01,2013-07-25 04:23:00,
2013-07-24 22:27:00,73.9,9.0,30.09,North,353,2.7,7.6,8,0.00,,---,0.00,VWS V14.01,2013-07-25 04:27:00,
2013-07-24 22:28:00,73.9,9.0,30.09,North,353,2.7,7.6,8,0.00,,---,0.00,VWS V14.01,2013-07-25 04:28:00,
2013-07-24 22:32:00,74.1,9.1,30.09,NNW,344,3.1,4.0,8,0.00,,---,0.00,VWS V14.01,2013-07-25 04:32:00,
2013-07-24 22:34:00,74.1,9.1,30.09,NNW,333,3.1,4.0,8,0.00,,---,0.00,VWS V14.01,2013-07-25 04:34:00,
2013-07-24 22:37:00,74.1,16.3,30.09,NNW,338,4.0,5.8,11,0.00,,---,0.00,VWS V14.01,2013-07-25 04:37:00,
2013-07-24 22:38:00,74.1,16.3,30.09,North,0,8.1,8.3,11,0.00,,---,0.00,VWS V14.01,2013-07-25 04:38:00,
2013-07-24 22:39:00,73.9,16.1,30.09,NW,322,10.5,10.5,11,0.00,,---,0.00,VWS V14.01,2013-07-25 04:39:00,
2013-07-24 22:42:00,73.2,15.6,30.12,North,1,9.6,10.5,11,0.00,,---,0.00,VWS V14.01,2013-07-25 04:42:00,
2013-07-24 22:43:00,73.0,15.5,30.12,North,357,8.1,11.0,11,0.00,,---,0.00,VWS V14.01,2013-07-25 04:43:00,
2013-07-24 22:44:00,72.5,15.0,30.12,NNW,345,5.8,11.0,11,0.00,,---,0.00,VWS V14.01,2013-07-25 04:44:00,
2013-07-24 22:47:00,71.6,14.4,30.12,NNW,331,5.4,8.3,11,0.00,,---,0.00,VWS V14.01,2013-07-25 04:47:00,
2013-07-24 22:48:00,71.4,19.8,30.12,NNW,339,5.4,8.3,14,0.00,,---,0.00,VWS V14.01,2013-07-25 04:48:00,
2013-07-24 22:49:00,71.2,19.6,30.12,NNW,333,5.8,8.3,14,0.00,,---,0.00,VWS V14.01,2013-07-25 04:49:00,
2013-07-24 22:52:00,70.3,18.9,30.12,North,2,7.6,8.3,14,0.00,,---,0.00,VWS V14.01,2013-07-25 04:52:00,
2013-07-24 22:53:00,70.3,18.9,30.12,NW,309,5.8,8.3,14,0.00,,---,0.00,VWS V14.01,2013-07-25 04:53:00,
2013-07-24 22:54:00,70.0,23.2,30.12,NNW,335,6.3,8.3,17,0.00,,---,0.00,VWS V14.01,2013-07-25 04:54:00,
2013-07-24 22:58:00,69.4,26.7,30.09,NNW,343,8.1,8.7,20,0.00,,---,0.00,VWS V14.01,2013-07-25 04:58:00,
2013-07-24 22:59:00,69.3,26.5,30.09,NNW,331,8.3,8.7,20,0.00,,---,0.00,VWS V14.01,2013-07-25 04:59:00,
2013-07-24 23:00:00,69.3,26.5,30.09,NNW,344,5.8,8.7,20,0.00,,---,0.00,VWS V14.01,2013-07-25 05:00:00,
2013-07-24 23:03:00,69.1,26.4,30.09,NNW,327,4.0,8.7,20,0.00,,---,0.00,VWS V14.01,2013-07-25 05:03:00,
2013-07-24 23:04:00,68.9,28.5,30.09,NW,324,4.0,9.6,22,0.00,,---,0.00,VWS V14.01,2013-07-25 05:04:00,
2013-07-24 23:05:00,68.9,28.5,30.09,NNW,341,4.0,9.6,22,0.00,,---,0.00,VWS V14.01,2013-07-25 05:05:00,
2013-07-24 23:08:00,68.7,28.4,30.09,NNW,341,6.3,9.6,22,0.00,,---,0.00,VWS V14.01,2013-07-25 05:08:00,
2013-07-24 23:09:00,68.5,28.2,30.09,North,0,5.4,9.6,22,0.00,,---,0.00,VWS V14.01,2013-07-25 05:09:00,
2013-07-24 23:10:00,68.5,28.2,30.09,NW,325,3.6,9.6,22,0.00,,---,0.00,VWS V14.01,2013-07-25 05:10:00,
2013-07-24 23:13:00,68.4,28.1,30.09,North,353,3.6,9.6,22,0.00,,---,0.00,VWS V14.01,2013-07-25 05:13:00,
2013-07-24 23:14:00,68.4,28.1,30.09,NNW,336,4.0,9.6,22,0.00,,---,0.00,VWS V14.01,2013-07-25 05:14:00,
2013-07-24 23:15:00,68.2,27.9,30.09,NW,312,3.6,9.6,22,0.00,,---,0.00,VWS V14.01,2013-07-25 05:15:00,
2013-07-24 23:18:00,68.0,28.9,30.09,NW,318,4.0,5.4,23,0.00,,---,0.00,VWS V14.01,2013-07-25 05:18:00,
2013-07-24 23:19:00,68.0,28.9,30.09,NW,325,2.7,5.4,23,0.00,,---,0.00,VWS V14.01,2013-07-25 05:19:00,
2013-07-24 23:20:00,67.8,28.7,30.09,NW,316,2.7,5.4,23,0.00,,---,0.00,VWS V14.01,2013-07-25 05:20:00,
2013-07-24 23:23:00,67.6,28.5,30.09,NNE,22,2.7,5.4,23,0.00,,---,0.00,VWS V14.01,2013-07-25 05:23:00,
2013-07-24 23:24:00,67.6,28.5,30.09,NNE,27,0.0,5.4,23,0.00,,---,0.00,VWS V14.01,2013-07-25 05:24:00,
2013-07-24 23:25:00,67.6,28.5,30.09,NNE,27,0.0,5.4,23,0.00,,---,0.00,VWS V14.01,2013-07-25 05:25:00,
2013-07-24 23:29:00,67.3,28.2,30.12,ESE,106,3.1,5.4,23,0.00,,---,0.00,VWS V14.01,2013-07-25 05:29:00,
2013-07-24 23:30:00,67.1,28.1,30.12,ESE,106,0.0,5.4,23,0.00,,---,0.00,VWS V14.01,2013-07-25 05:30:00,
2013-07-24 23:34:00,66.7,28.8,30.12,South,176,2.7,3.1,24,0.00,,---,0.00,VWS V14.01,2013-07-25 05:34:00,
2013-07-24 23:35:00,66.7,28.8,30.12,South,186,3.6,3.6,24,0.00,,---,0.00,VWS V14.01,2013-07-25 05:35:00,
2013-07-24 23:36:00,66.6,28.7,30.12,SSW,195,3.1,3.6,24,0.00,,---,0.00,VWS V14.01,2013-07-25 05:36:00,
2013-07-24 23:39:00,66.6,28.7,30.12,SSW,212,2.7,4.9,24,0.00,,---,0.00,VWS V14.01,2013-07-25 05:39:00,
2013-07-24 23:40:00,66.6,28.7,30.12,SSW,212,2.7,4.9,24,0.00,,---,0.00,VWS V14.01,2013-07-25 05:40:00,
2013-07-24 23:42:00,66.4,28.5,30.12,SSW,212,0.0,4.9,24,0.00,,---,0.00,VWS V14.01,2013-07-25 05:42:00,
2013-07-24 23:44:00,66.2,28.4,30.12,SSW,212,0.0,4.9,24,0.00,,---,0.00,VWS V14.01,2013-07-25 05:44:00,
2013-07-24 23:45:00,66.0,29.2,30.12,SSW,212,0.0,4.9,25,0.00,,---,0.00,VWS V14.01,2013-07-25 05:45:00,
2013-07-24 23:47:00,65.8,29.1,30.12,SSW,212,0.0,0.0,25,0.00,,---,0.00,VWS V14.01,2013-07-25 05:47:00,
2013-07-24 23:50:00,65.5,28.8,30.12,SSW,212,0.0,0.0,25,0.00,,---,0.00,VWS V14.01,2013-07-25 05:50:00,
2013-07-24 23:51:00,65.5,28.8,30.12,SSW,212,0.0,0.0,25,0.00,,---,0.00,VWS V14.01,2013-07-25 05:51:00,
2013-07-24 23:52:00,65.3,28.6,30.12,SSW,212,0.0,0.0,25,0.00,,---,0.00,VWS V14.01,2013-07-25 05:52:00,
2013-07-24 23:55:00,65.1,29.4,30.12,SSW,212,0.0,0.0,26,0.00,,---,0.00,VWS V14.01,2013-07-25 05:55:00,
2013-07-24 23:56:00,65.1,29.4,30.12,SSW,212,0.0,0.0,26,0.00,,---,0.00,VWS V14.01,2013-07-25 05:56:00,
2013-07-24 23:58:00,64.9,29.3,30.12,SSW,212,0.0,0.0,26,0.00,,---,0.00,VWS V14.01,2013-07-25 05:58:00,